Time,TemperatureF,DewpointF,PressureIn,WindDirection,WindDirectionDegrees,WindSpeedMPH,WindSpeedGustMPH,Humidity,HourlyPrecipIn,Conditions,Clouds,dailyrainin,SolarRadiationWatts/m^2,SoftwareType,DateUTC
2013-10-09 00:00:00,48.9,43.5,30.23,NE,38,0.0,0.0,82,0.00,,,0.00,0.00,VWS V14.01,2013-10-09 04:00:00,
2013-10-09 00:01:00,48.6,43.1,30.24,NE,38,0.0,0.0,81,0.00,,,0.00,0.00,VWS V14.01,2013-10-09 04:01:00,
2013-10-09 00:02:00,48.5,43.3,30.25,NE,38,0.0,0.0,82,0.00,,,0.00,0.00,VWS V14.01,2013-10-09 04:02:00,
2013-10-09 00:03:00,48.5,43.3,30.25,NE,38,0.0,0.0,82,0.00,,,0.00,0.00,VWS V14.01,2013-10-09 04:03:00,
2013-10-09 00:06:00,46.1,40.5,30.25,NE,38,0.0,0.0,81,0.00,,,0.00,0.00,VWS V14.01,2013-10-09 04:06:00,
2013-10-09 00:07:00,46.0,40.4,30.25,NE,38,0.0,0.0,81,0.00,,,0.00,0.00,VWS V14.01,2013-10-09 04:07:00,
2013-10-09 00:09:00,46.7,42.2,30.25,NE,38,0.0,0.0,84,0.00,,,0.00,0.00,VWS V14.01,2013-10-09 04:09:00,
2013-10-09 00:11:00,45.2,41.0,30.25,NE,38,0.0,0.0,85,0.00,,,0.00,0.00,VWS V14.01,2013-10-09 04:11:00,
2013-10-09 00:12:00,45.3,41.3,30.25,NE,38,0.0,0.0,86,0.00,,,0.00,0.43,VWS V14.01,2013-10-09 04:12:00,
2013-10-09 00:14:00,44.5,40.9,30.25,NE,38,0.0,0.0,87,0.00,,,0.00,0.06,VWS V14.01,2013-10-09 04:14:00,
2013-10-09 00:17:00,45.4,42.3,30.25,NE,38,0.0,0.0,89,0.00,,,0.00,0.00,VWS V14.01,2013-10-09 04:17:00,
2013-10-09 00:18:00,45.1,42.3,30.25,NE,38,0.0,0.0,90,0.00,,,0.00,0.00,VWS V14.01,2013-10-09 04:18:00,
2013-10-09 00:19:00,45.8,43.2,30.25,NE,38,0.0,0.0,91,0.00,,,0.00,0.73,VWS V14.01,2013-10-09 04:19:00,
2013-10-09 00:20:00,46.3,44.1,30.25,NE,38,0.0,0.0,92,0.00,,,0.00,0.12,VWS V14.01,2013-10-09 04:20:00,
2013-10-09 00:23:00,46.6,44.7,30.25,NE,38,0.0,0.0,93,0.00,,,0.00,0.00,VWS V14.01,2013-10-09 04:23:00,
2013-10-09 00:25:00,49.3,47.8,30.24,NE,38,0.0,0.0,95,0.00,,,0.00,0.00,VWS V14.01,2013-10-09 04:25:00,
2013-10-09 00:26:00,46.6,45.2,30.24,NE,38,0.0,0.0,95,0.00,,,0.00,0.00,VWS V14.01,2013-10-09 04:26:00,
2013-10-09 00:28:00,48.3,46.6,30.23,NE,38,0.0,0.0,94,0.00,,,0.00,0.00,VWS V14.01,2013-10-09 04:28:00,
2013-10-09 00:29:00,46.9,45.0,30.23,NE,38,0.0,0.0,93,0.00,,,0.00,0.00,VWS V14.01,2013-10-09 04:29:00,
2013-10-09 00:30:00,47.1,44.8,30.24,NE,38,0.0,0.0,92,0.00,,,0.00,0.00,VWS V14.01,2013-10-09 04:30:00,
2013-10-09 00:31:00,47.3,45.1,30.24,NE,38,0.0,0.0,92,0.00,,,0.00,0.00,VWS V14.01,2013-10-09 04:31:00,
2013-10-09 00:34:00,47.0,45.1,30.24,NE,38,0.0,0.0,93,0.00,,,0.00,0.00,VWS V14.01,2013-10-09 04:34:00,
2013-10-09 00:35:00,45.8,43.5,30.24,NE,38,0.0,0.0,92,0.00,,,0.00,0.00,VWS V14.01,2013-10-09 04:35:00,
2013-10-09 00:36:00,46.6,44.4,30.28,NE,38,0.0,0.0,92,0.00,,,0.00,0.00,VWS V14.01,2013-10-09 04:36:00,
2013-10-09 00:37:00,45.2,43.1,30.24,NE,38,0.0,0.0,92,0.00,,,0.00,0.00,VWS V14.01,2013-10-09 04:37:00,
2013-10-09 00:39:00,44.8,42.5,30.25,NE,38,0.0,0.0,91,0.00,,,0.00,0.00,VWS V14.01,2013-10-09 04:39:00,
2013-10-09 00:40:00,44.3,42.2,30.25,NE,38,0.0,0.0,92,0.00,,,0.00,0.12,VWS V14.01,2013-10-09 04:40:00,
2013-10-09 00:41:00,43.5,39.5,30.24,NE,38,0.0,0.0,86,0.00,,,0.00,0.00,VWS V14.01,2013-10-09 04:41:00,
2013-10-09 00:42:00,43.9,41.8,30.25,NE,38,0.0,0.0,92,0.00,,,0.00,0.00,VWS V14.01,2013-10-09 04:42:00,
2013-10-09 00:46:00,45.0,43.8,30.25,NE,38,0.0,0.0,96,0.00,,,0.00,0.00,VWS V14.01,2013-10-09 04:46:00,
2013-10-09 00:47:00,44.8,43.7,30.28,NE,38,0.0,0.0,96,0.00,,,0.00,0.73,VWS V14.01,2013-10-09 04:47:00,
2013-10-09 00:48:00,44.6,43.5,30.25,NE,38,0.0,0.0,96,0.00,,,0.00,0.00,VWS V14.01,2013-10-09 04:48:00,
2013-10-09 00:51:00,45.4,44.6,30.24,NE,38,0.0,0.0,97,0.00,,,0.00,0.00,VWS V14.01,2013-10-09 04:51:00,
2013-10-09 00:52:00,45.4,44.6,30.24,NE,38,0.0,0.0,97,0.00,,,0.00,0.00,VWS V14.01,2013-10-09 04:52:00,
2013-10-09 00:53:00,45.3,44.7,30.25,NE,38,0.0,0.0,98,0.00,,,0.00,0.43,VWS V14.01,2013-10-09 04:53:00,
2013-10-09 00:54:00,44.5,44.1,30.25,NE,38,0.0,0.0,98,0.00,,,0.00,0.00,VWS V14.01,2013-10-09 04:54:00,
2013-10-09 00:55:00,45.2,44.8,30.25,NE,38,0.0,0.0,98,0.00,,,0.00,0.00,VWS V14.01,2013-10-09 04:55:00,
2013-10-09 00:56:00,45.0,44.6,30.24,NE,38,0.0,0.0,98,0.00,,,0.00,0.43,VWS V14.01,2013-10-09 04:56:00,
2013-10-09 00:58:00,45.8,45.7,30.25,NE,38,0.0,0.0,99,0.00,,,0.00,0.00,VWS V14.01,2013-10-09 04:58:00,
2013-10-09 00:59:00,45.8,45.8,30.24,NE,38,0.0,0.0,100,0.00,,,0.00,0.00,VWS V14.01,2013-10-09 04:59:00,
2013-10-09 01:00:00,45.7,45.7,30.25,NE,38,0.0,0.0,100,0.00,,,0.00,0.00,VWS V14.01,2013-10-09 05:00:00,
2013-10-09 01:01:00,45.2,45.2,30.25,NE,38,0.0,0.0,100,0.00,,,0.00,0.00,VWS V14.01,2013-10-09 05:01:00,
2013-10-09 01:02:00,46.2,46.2,30.25,NE,38,0.0,0.0,100,0.00,,,0.00,0.00,VWS V14.01,2013-10-09 05:02:00,
2013-10-09 01:04:00,47.0,47.0,30.24,NE,38,0.0,0.0,100,0.00,,,0.00,0.00,VWS V14.01,2013-10-09 05:04:00,
2013-10-09 01:06:00,46.0,46.1,30.24,NE,38,0.0,0.0,100,0.00,,,0.00,0.00,VWS V14.01,2013-10-09 05:06:00,
2013-10-09 01:07:00,46.0,46.1,30.24,NE,38,0.0,0.0,100,0.00,,,0.00,0.00,VWS V14.01,2013-10-09 05:07:00,
2013-10-09 01:09:00,44.2,44.0,30.24,NE,38,0.0,0.0,99,0.00,,,0.00,0.00,VWS V14.01,2013-10-09 05:09:00,
2013-10-09 01:11:00,44.3,44.2,30.25,NE,38,0.0,0.0,100,0.00,,,0.00,0.00,VWS V14.01,2013-10-09 05:11:00,
2013-10-09 01:12:00,44.2,44.1,30.24,NE,38,0.0,0.0,99,0.00,,,0.00,0.00,VWS V14.01,2013-10-09 05:12:00,
2013-10-09 01:13:00,45.6,45.4,30.24,NE,38,0.0,0.0,99,0.00,,,0.00,0.00,VWS V14.01,2013-10-09 05:13:00,
2013-10-09 01:14:00,46.7,46.7,30.24,NE,38,0.0,0.0,100,0.00,,,0.00,0.00,VWS V14.01,2013-10-09 05:14:00,
2013-10-09 01:19:00,48.3,48.3,30.24,NE,38,0.0,0.0,100,0.00,,,0.00,0.00,VWS V14.01,2013-10-09 05:19:00,
2013-10-09 01:20:00,48.5,48.5,30.24,NE,38,0.0,0.0,100,0.00,,,0.00,0.00,VWS V14.01,2013-10-09 05:20:00,
2013-10-09 01:21:00,48.3,48.3,30.24,ENE,61,0.0,0.0,100,0.00,,,0.00,0.00,VWS V14.01,2013-10-09 05:21:00,
2013-10-09 01:22:00,48.2,48.2,30.24,NE,46,0.0,0.0,100,0.00,,,0.00,0.00,VWS V14.01,2013-10-09 05:22:00,
2013-10-09 01:23:00,48.4,48.4,30.25,NE,34,0.0,0.0,100,0.00,,,0.00,0.00,VWS V14.01,2013-10-09 05:23:00,
2013-10-09 01:24:00,48.1,47.5,30.24,NE,34,0.0,0.0,98,0.00,,,0.00,0.00,VWS V14.01,2013-10-09 05:24:00,
2013-10-09 01:26:00,47.7,47.7,30.24,NE,34,0.0,0.0,100,0.00,,,0.00,0.00,VWS V14.01,2013-10-09 05:26:00,
2013-10-09 01:27:00,48.2,48.1,30.24,NE,34,0.0,0.0,100,0.00,,,0.00,0.00,VWS V14.01,2013-10-09 05:27:00,
2013-10-09 01:28:00,48.0,47.8,30.23,NE,34,0.0,0.0,99,0.00,,,0.00,0.00,VWS V14.01,2013-10-09 05:28:00,
2013-10-09 01:30:00,47.7,47.4,30.23,NE,34,0.0,0.0,99,0.00,,,0.00,0.00,VWS V14.01,2013-10-09 05:30:00,
2013-10-09 01:31:00,48.1,47.6,30.24,NE,34,0.0,0.0,98,0.00,,,0.00,0.00,VWS V14.01,2013-10-09 05:31:00,
2013-10-09 01:33:00,47.6,46.9,30.24,NE,34,0.0,0.0,98,0.00,,,0.00,0.00,VWS V14.01,2013-10-09 05:33:00,
2013-10-09 01:35:00,48.1,47.3,30.24,NE,34,0.0,0.0,97,0.00,,,0.00,0.00,VWS V14.01,2013-10-09 05:35:00,
2013-10-09 01:36:00,47.9,47.1,30.23,NE,34,0.0,0.0,97,0.00,,,0.00,0.00,VWS V14.01,2013-10-09 05:36:00,
2013-10-09 01:37:00,48.1,47.3,30.25,NE,34,0.0,0.0,97,0.00,,,0.00,0.43,VWS V14.01,2013-10-09 05:37:00,
2013-10-09 01:38:00,48.0,47.2,30.24,NE,34,0.0,0.0,97,0.00,,,0.00,0.12,VWS V14.01,2013-10-09 05:38:00,
2013-10-09 01:40:00,47.7,46.9,30.23,NE,34,0.0,0.0,97,0.00,,,0.00,0.00,VWS V14.01,2013-10-09 05:40:00,
2013-10-09 01:41:00,47.2,46.4,30.23,NE,34,0.0,0.0,97,0.00,,,0.00,0.00,VWS V14.01,2013-10-09 05:41:00,
2013-10-09 01:43:00,47.8,46.9,30.24,NE,34,0.0,0.0,97,0.00,,,0.00,0.00,VWS V14.01,2013-10-09 05:43:00,
2013-10-09 01:44:00,48.0,47.2,30.23,NE,46,0.0,0.0,97,0.00,,,0.00,0.00,VWS V14.01,2013-10-09 05:44:00,
2013-10-09 01:45:00,48.0,47.3,30.28,NE,46,0.0,0.0,97,0.00,,,0.00,0.00,VWS V14.01,2013-10-09 05:45:00,
2013-10-09 01:47:00,47.7,47.0,30.24,NE,46,0.0,0.0,97,0.00,,,0.00,0.00,VWS V14.01,2013-10-09 05:47:00,
2013-10-09 01:48:00,47.7,47.0,30.24,ENE,76,0.0,0.0,97,0.00,,,0.00,0.00,VWS V14.01,2013-10-09 05:48:00,
2013-10-09 01:49:00,47.9,47.2,30.24,ENE,76,0.0,0.0,97,0.00,,,0.00,0.00,VWS V14.01,2013-10-09 05:49:00,
2013-10-09 01:53:00,47.6,46.7,30.24,East,98,0.0,0.0,96,0.00,,,0.00,0.00,VWS V14.01,2013-10-09 05:53:00,
2013-10-09 01:54:00,47.2,46.2,30.24,East,91,0.0,0.0,96,0.00,,,0.00,0.00,VWS V14.01,2013-10-09 05:54:00,
2013-10-09 01:56:00,47.3,46.3,30.24,East,91,0.0,0.0,96,0.00,,,0.00,0.00,VWS V14.01,2013-10-09 05:56:00,
2013-10-09 01:58:00,47.0,46.0,30.25,East,91,0.0,0.0,97,0.00,,,0.00,0.00,VWS V14.01,2013-10-09 05:58:00,
2013-10-09 01:59:00,47.2,46.3,30.24,East,91,0.0,0.0,96,0.00,,,0.00,0.00,VWS V14.01,2013-10-09 05:59:00,
2013-10-09 02:01:00,47.2,46.2,30.25,East,91,0.0,0.0,96,0.00,,,0.00,0.73,VWS V14.01,2013-10-09 06:01:00,
2013-10-09 02:03:00,47.3,46.3,30.24,East,91,0.0,0.0,96,0.00,,,0.00,0.00,VWS V14.01,2013-10-09 06:03:00,
2013-10-09 02:05:00,48.0,47.1,30.24,ENE,74,0.0,0.0,97,0.00,,,0.00,0.43,VWS V14.01,2013-10-09 06:05:00,
2013-10-09 02:06:00,47.5,46.6,30.24,ENE,70,0.0,0.0,97,0.00,,,0.00,0.00,VWS V14.01,2013-10-09 06:06:00,
2013-10-09 02:08:00,47.5,46.5,30.24,ENE,70,0.0,0.0,97,0.00,,,0.00,0.00,VWS V14.01,2013-10-09 06:08:00,
2013-10-09 02:09:00,47.2,46.3,30.24,ENE,70,0.0,0.0,97,0.00,,,0.00,0.00,VWS V14.01,2013-10-09 06:09:00,
2013-10-09 02:10:00,47.4,46.5,30.24,ENE,70,0.0,0.0,97,0.00,,,0.00,0.00,VWS V14.01,2013-10-09 06:10:00,
2013-10-09 02:11:00,47.2,46.4,30.23,ENE,70,0.0,0.0,97,0.00,,,0.00,0.06,VWS V14.01,2013-10-09 06:11:00,
2013-10-09 02:12:00,47.6,46.8,30.25,ENE,70,0.0,0.0,97,0.00,,,0.00,0.00,VWS V14.01,2013-10-09 06:12:00,
2013-10-09 02:13:00,47.6,46.8,30.25,ENE,70,0.0,0.0,97,0.00,,,0.00,0.00,VWS V14.01,2013-10-09 06:13:00,
2013-10-09 02:14:00,47.9,47.3,30.24,ENE,70,0.0,0.0,98,0.00,,,0.00,0.00,VWS V14.01,2013-10-09 06:14:00,
2013-10-09 02:16:00,47.8,47.2,30.25,ENE,70,0.0,0.0,98,0.00,,,0.00,0.00,VWS V14.01,2013-10-09 06:16:00,
2013-10-09 02:18:00,47.6,47.0,30.25,NE,52,0.0,0.0,98,0.00,,,0.00,0.00,VWS V14.01,2013-10-09 06:18:00,
2013-10-09 02:19:00,48.0,47.3,30.25,NE,53,0.0,0.0,97,0.00,,,0.00,0.00,VWS V14.01,2013-10-09 06:19:00,
2013-10-09 02:20:00,47.6,44.6,30.25,NE,53,0.0,0.0,89,0.00,,,0.00,0.00,VWS V14.01,2013-10-09 06:20:00,
2013-10-09 02:22:00,48.2,45.7,30.25,NE,53,0.0,0.0,91,0.00,,,0.00,0.00,VWS V14.01,2013-10-09 06:22:00,
2013-10-09 02:24:00,48.5,47.8,30.25,NE,48,0.0,0.0,97,0.00,,,0.00,0.00,VWS V14.01,2013-10-09 06:24:00,
2013-10-09 02:26:00,47.9,47.0,30.25,NE,48,0.0,0.0,97,0.00,,,0.00,0.00,VWS V14.01,2013-10-09 06:26:00,
2013-10-09 02:27:00,47.9,47.0,30.25,NE,48,0.0,0.0,97,0.00,,,0.00,0.00,VWS V14.01,2013-10-09 06:27:00,
2013-10-09 02:28:00,47.8,46.8,30.25,NE,48,0.0,0.0,97,0.00,,,0.00,0.00,VWS V14.01,2013-10-09 06:28:00,
2013-10-09 02:29:00,47.7,46.8,30.24,NE,48,0.0,0.0,97,0.00,,,0.00,0.00,VWS V14.01,2013-10-09 06:29:00,
2013-10-09 02:30:00,47.9,47.0,30.25,NE,48,0.0,0.0,97,0.00,,,0.00,0.00,VWS V14.01,2013-10-09 06:30:00,
2013-10-09 02:32:00,48.7,47.7,30.25,NE,47,0.0,0.0,96,0.00,,,0.00,0.00,VWS V14.01,2013-10-09 06:32:00,
2013-10-09 02:33:00,48.3,47.3,30.25,NE,48,0.0,0.0,96,0.00,,,0.00,0.43,VWS V14.01,2013-10-09 06:33:00,
2013-10-09 02:35:00,48.3,47.4,30.29,NE,48,1.0,1.0,96,0.00,,,0.00,0.00,VWS V14.01,2013-10-09 06:35:00,
2013-10-09 02:36:00,47.2,46.2,30.24,NE,49,0.0,1.3,96,0.00,,,0.00,0.43,VWS V14.01,2013-10-09 06:36:00,
2013-10-09 02:38:00,46.9,45.7,30.24,NE,56,0.0,1.3,95,0.00,,,0.00,0.00,VWS V14.01,2013-10-09 06:38:00,
2013-10-09 02:39:00,47.1,45.8,30.24,ENE,62,0.0,1.3,95,0.00,,,0.00,0.43,VWS V14.01,2013-10-09 06:39:00,
2013-10-09 02:41:00,47.5,46.4,30.25,ENE,60,0.0,1.3,96,0.00,,,0.00,0.12,VWS V14.01,2013-10-09 06:41:00,
2013-10-09 02:42:00,47.6,46.5,30.25,ENE,60,0.0,1.3,96,0.00,,,0.00,0.00,VWS V14.01,2013-10-09 06:42:00,
2013-10-09 02:43:00,47.2,44.8,30.25,ENE,60,0.0,1.3,91,0.00,,,0.00,0.00,VWS V14.01,2013-10-09 06:43:00,
2013-10-09 02:44:00,46.9,45.9,30.25,ENE,58,0.0,1.3,96,0.00,,,0.00,0.00,VWS V14.01,2013-10-09 06:44:00,
2013-10-09 02:48:00,47.0,46.0,30.25,NE,44,0.0,1.3,97,0.00,,,0.00,0.00,VWS V14.01,2013-10-09 06:48:00,
2013-10-09 02:49:00,47.4,46.5,30.25,NE,46,0.0,1.3,97,0.00,,,0.00,0.00,VWS V14.01,2013-10-09 06:49:00,
2013-10-09 02:50:00,47.1,46.2,30.25,NE,46,0.0,1.3,96,0.00,,,0.00,0.00,VWS V14.01,2013-10-09 06:50:00,
2013-10-09 02:51:00,47.5,46.5,30.24,NE,46,0.0,1.3,97,0.00,,,0.00,0.00,VWS V14.01,2013-10-09 06:51:00,
2013-10-09 02:53:00,47.5,46.7,30.24,NE,48,0.0,1.3,97,0.00,,,0.00,0.00,VWS V14.01,2013-10-09 06:53:00,
2013-10-09 02:54:00,48.0,47.2,30.25,NE,55,0.0,1.3,97,0.00,,,0.00,0.00,VWS V14.01,2013-10-09 06:54:00,
2013-10-09 02:57:00,47.6,46.9,30.25,NE,55,0.0,1.3,97,0.00,,,0.00,0.00,VWS V14.01,2013-10-09 06:57:00,
2013-10-09 02:58:00,47.0,45.5,30.25,NE,54,0.0,1.3,94,0.00,,,0.00,0.00,VWS V14.01,2013-10-09 06:58:00,
2013-10-09 02:59:00,47.4,46.5,30.25,NE,54,1.0,1.3,97,0.00,,,0.00,0.00,VWS V14.01,2013-10-09 06:59:00,
2013-10-09 03:00:00,46.9,46.1,30.24,ENE,70,0.0,1.3,97,0.00,,,0.00,0.00,VWS V14.01,2013-10-09 07:00:00,
2013-10-09 03:03:00,47.8,47.0,30.23,NE,45,0.0,0.0,97,0.00,,,0.00,0.00,VWS V14.01,2013-10-09 07:03:00,
2013-10-09 03:04:00,47.2,46.4,30.23,NE,51,0.0,0.0,97,0.00,,,0.00,0.00,VWS V14.01,2013-10-09 07:04:00,
2013-10-09 03:05:00,47.6,46.8,30.24,NE,50,0.0,0.0,97,0.00,,,0.00,0.00,VWS V14.01,2013-10-09 07:05:00,
2013-10-09 03:06:00,47.7,46.9,30.24,NE,50,0.0,0.0,97,0.00,,,0.00,0.00,VWS V14.01,2013-10-09 07:06:00,
2013-10-09 03:07:00,47.6,46.8,30.24,NE,50,0.0,0.0,97,0.00,,,0.00,0.00,VWS V14.01,2013-10-09 07:07:00,
2013-10-09 03:10:00,46.9,46.0,30.24,ENE,65,0.0,0.0,97,0.00,,,0.00,0.43,VWS V14.01,2013-10-09 07:10:00,
2013-10-09 03:11:00,46.9,46.0,30.24,ENE,65,0.0,0.0,97,0.00,,,0.00,0.43,VWS V14.01,2013-10-09 07:11:00,
2013-10-09 03:12:00,47.9,47.0,30.24,NE,52,1.5,1.5,97,0.00,,,0.00,0.00,VWS V14.01,2013-10-09 07:12:00,
2013-10-09 03:13:00,47.8,45.1,30.24,NE,46,0.0,1.5,90,0.00,,,0.00,0.43,VWS V14.01,2013-10-09 07:13:00,
2013-10-09 03:16:00,46.6,45.6,30.24,NE,50,0.0,0.0,96,0.00,,,0.00,0.00,VWS V14.01,2013-10-09 07:16:00,
2013-10-09 03:18:00,47.0,45.9,30.24,NE,50,0.0,0.0,96,0.00,,,0.00,0.00,VWS V14.01,2013-10-09 07:18:00,
2013-10-09 03:19:00,47.3,46.3,30.24,NE,50,0.0,0.0,96,0.00,,,0.00,0.00,VWS V14.01,2013-10-09 07:19:00,
2013-10-09 03:22:00,47.8,47.0,30.24,NE,39,0.0,0.0,97,0.00,,,0.00,0.00,VWS V14.01,2013-10-09 07:22:00,
2013-10-09 03:23:00,47.4,46.5,30.24,NE,39,0.0,0.0,97,0.00,,,0.00,0.12,VWS V14.01,2013-10-09 07:23:00,
2013-10-09 03:24:00,47.5,46.7,30.28,NE,39,0.0,0.0,97,0.00,,,0.00,0.73,VWS V14.01,2013-10-09 07:24:00,
2013-10-09 03:26:00,47.2,46.4,30.24,NE,39,0.0,0.0,97,0.00,,,0.00,0.00,VWS V14.01,2013-10-09 07:26:00,
2013-10-09 03:28:00,47.4,46.6,30.24,NE,39,0.0,0.0,97,0.00,,,0.00,0.00,VWS V14.01,2013-10-09 07:28:00,
2013-10-09 03:29:00,46.9,46.1,30.24,NE,39,0.0,0.0,97,0.00,,,0.00,0.00,VWS V14.01,2013-10-09 07:29:00,
2013-10-09 03:30:00,46.9,46.1,30.24,NE,39,0.0,0.0,97,0.00,,,0.00,0.00,VWS V14.01,2013-10-09 07:30:00,
2013-10-09 03:32:00,47.2,46.4,30.23,NE,39,0.0,0.0,97,0.00,,,0.00,0.00,VWS V14.01,2013-10-09 07:32:00,
2013-10-09 03:33:00,46.8,46.1,30.23,NE,39,0.0,0.0,97,0.00,,,0.00,0.00,VWS V14.01,2013-10-09 07:33:00,
2013-10-09 03:36:00,47.1,46.5,30.23,NE,39,0.0,0.0,98,0.00,,,0.00,0.00,VWS V14.01,2013-10-09 07:36:00,
2013-10-09 03:37:00,47.1,46.6,30.24,NE,39,0.0,0.0,98,0.00,,,0.00,0.43,VWS V14.01,2013-10-09 07:37:00,
2013-10-09 03:38:00,47.3,46.8,30.23,NE,39,0.0,0.0,98,0.00,,,0.00,0.00,VWS V14.01,2013-10-09 07:38:00,
2013-10-09 03:39:00,47.2,46.7,30.24,ENE,67,0.0,0.0,98,0.00,,,0.00,0.00,VWS V14.01,2013-10-09 07:39:00,
2013-10-09 03:41:00,47.0,46.5,30.24,ENE,67,0.0,0.0,98,0.00,,,0.00,0.00,VWS V14.01,2013-10-09 07:41:00,
2013-10-09 03:43:00,46.8,46.3,30.24,ENE,67,0.0,0.0,98,0.00,,,0.00,0.00,VWS V14.01,2013-10-09 07:43:00,
2013-10-09 03:44:00,47.0,46.5,30.24,ENE,67,0.0,0.0,98,0.00,,,0.00,0.00,VWS V14.01,2013-10-09 07:44:00,
2013-10-09 03:45:00,47.2,46.8,30.24,ENE,67,0.0,0.0,98,0.00,,,0.00,0.00,VWS V14.01,2013-10-09 07:45:00,
2013-10-09 03:46:00,47.3,47.0,30.24,ENE,67,0.0,0.0,99,0.00,,,0.00,0.00,VWS V14.01,2013-10-09 07:46:00,
2013-10-09 03:47:00,47.0,46.7,30.24,ENE,67,0.0,0.0,99,0.00,,,0.00,0.00,VWS V14.01,2013-10-09 07:47:00,
2013-10-09 03:49:00,46.9,46.6,30.24,NE,55,0.0,0.0,99,0.00,,,0.00,0.00,VWS V14.01,2013-10-09 07:49:00,
2013-10-09 03:51:00,46.9,46.5,30.25,NE,55,0.0,0.0,99,0.00,,,0.00,0.00,VWS V14.01,2013-10-09 07:51:00,
2013-10-09 03:52:00,46.7,46.4,30.24,NE,55,0.0,0.0,99,0.00,,,0.00,0.06,VWS V14.01,2013-10-09 07:52:00,
2013-10-09 03:53:00,46.7,46.4,30.24,NE,55,0.0,0.0,99,0.00,,,0.00,0.00,VWS V14.01,2013-10-09 07:53:00,
2013-10-09 03:55:00,46.3,46.0,30.24,NE,55,0.0,0.0,99,0.00,,,0.00,0.00,VWS V14.01,2013-10-09 07:55:00,
2013-10-09 03:56:00,46.3,46.0,30.24,NE,55,0.0,0.0,99,0.00,,,0.00,0.00,VWS V14.01,2013-10-09 07:56:00,
2013-10-09 03:57:00,46.5,46.3,30.24,NE,55,0.0,0.0,99,0.00,,,0.00,0.00,VWS V14.01,2013-10-09 07:57:00,
2013-10-09 03:58:00,46.3,46.0,30.24,NE,55,0.0,0.0,99,0.00,,,0.00,0.00,VWS V14.01,2013-10-09 07:58:00,
2013-10-09 04:00:00,45.9,45.6,30.24,NE,55,0.0,0.0,99,0.00,,,0.00,0.00,VWS V14.01,2013-10-09 08:00:00,
2013-10-09 04:01:00,45.8,45.5,30.24,NE,55,0.0,0.0,99,0.00,,,0.00,0.00,VWS V14.01,2013-10-09 08:01:00,
2013-10-09 04:02:00,45.7,45.4,30.23,NE,55,0.0,0.0,99,0.00,,,0.00,0.00,VWS V14.01,2013-10-09 08:02:00,
2013-10-09 04:03:00,45.8,45.6,30.23,NE,55,0.0,0.0,99,0.00,,,0.00,0.00,VWS V14.01,2013-10-09 08:03:00,
2013-10-09 04:05:00,45.7,45.5,30.24,NE,55,0.0,0.0,99,0.00,,,0.00,0.00,VWS V14.01,2013-10-09 08:05:00,
2013-10-09 04:07:00,45.5,45.5,30.24,NE,55,0.0,0.0,100,0.00,,,0.00,0.00,VWS V14.01,2013-10-09 08:07:00,
2013-10-09 04:08:00,45.5,45.4,30.24,NE,55,0.0,0.0,100,0.00,,,0.00,0.00,VWS V14.01,2013-10-09 08:08:00,
2013-10-09 04:09:00,46.0,46.0,30.25,NE,55,0.0,0.0,100,0.00,,,0.00,0.00,VWS V14.01,2013-10-09 08:09:00,
2013-10-09 04:10:00,46.2,46.2,30.24,NE,48,0.0,0.0,100,0.00,,,0.00,0.00,VWS V14.01,2013-10-09 08:10:00,
2013-10-09 04:12:00,46.0,45.2,30.24,NE,38,0.0,0.0,97,0.00,,,0.00,0.00,VWS V14.01,2013-10-09 08:12:00,
2013-10-09 04:13:00,45.6,45.6,30.24,NE,37,0.0,0.0,100,0.00,,,0.00,0.00,VWS V14.01,2013-10-09 08:13:00,
2013-10-09 04:14:00,46.1,46.1,30.25,NE,37,0.0,0.0,100,0.00,,,0.00,0.00,VWS V14.01,2013-10-09 08:14:00,
2013-10-09 04:15:00,46.1,44.1,30.24,NE,37,0.0,0.0,93,0.00,,,0.00,0.00,VWS V14.01,2013-10-09 08:15:00,
2013-10-09 04:16:00,46.0,46.0,30.24,NE,37,0.0,0.0,100,0.00,,,0.00,0.00,VWS V14.01,2013-10-09 08:16:00,
2013-10-09 04:19:00,46.7,46.7,30.25,NE,37,0.0,0.0,100,0.00,,,0.00,0.00,VWS V14.01,2013-10-09 08:19:00,
2013-10-09 04:21:00,45.8,45.8,30.25,NE,43,0.0,0.0,100,0.00,,,0.00,0.00,VWS V14.01,2013-10-09 08:21:00,
2013-10-09 04:22:00,46.5,46.5,30.25,NE,43,0.0,0.0,100,0.00,,,0.00,0.00,VWS V14.01,2013-10-09 08:22:00,
2013-10-09 04:24:00,46.7,46.7,30.25,NE,42,0.0,0.0,100,0.00,,,0.00,0.00,VWS V14.01,2013-10-09 08:24:00,
2013-10-09 04:25:00,46.8,46.8,30.24,NE,53,0.0,0.0,100,0.00,,,0.00,0.00,VWS V14.01,2013-10-09 08:25:00,
2013-10-09 04:26:00,46.3,46.3,30.24,NE,47,0.0,0.0,100,0.00,,,0.00,0.00,VWS V14.01,2013-10-09 08:26:00,
2013-10-09 04:27:00,46.6,46.6,30.24,NE,39,0.0,0.0,100,0.00,,,0.00,0.00,VWS V14.01,2013-10-09 08:27:00,
2013-10-09 04:31:00,46.1,46.0,30.25,NE,39,0.0,0.0,100,0.00,,,0.00,0.00,VWS V14.01,2013-10-09 08:31:00,
2013-10-09 04:32:00,44.6,44.4,30.29,NNE,33,0.0,0.0,99,0.00,,,0.00,0.00,VWS V14.01,2013-10-09 08:32:00,
2013-10-09 04:33:00,44.5,44.3,30.26,NNE,33,0.0,0.0,99,0.00,,,0.00,0.00,VWS V14.01,2013-10-09 08:33:00,
2013-10-09 04:34:00,43.4,43.1,30.25,NNE,33,0.0,0.0,99,0.00,,,0.00,0.00,VWS V14.01,2013-10-09 08:34:00,
2013-10-09 04:36:00,44.8,44.3,30.24,NNE,33,0.0,0.0,98,0.00,,,0.00,0.00,VWS V14.01,2013-10-09 08:36:00,
2013-10-09 04:37:00,44.8,44.5,30.24,NNE,33,0.0,0.0,99,0.00,,,0.00,0.00,VWS V14.01,2013-10-09 08:37:00,
2013-10-09 04:38:00,44.0,43.8,30.25,NNE,33,0.0,0.0,99,0.00,,,0.00,0.00,VWS V14.01,2013-10-09 08:38:00,
2013-10-09 04:40:00,42.5,40.8,30.25,NNE,33,0.0,0.0,94,0.00,,,0.00,0.00,VWS V14.01,2013-10-09 08:40:00,
2013-10-09 04:42:00,42.7,42.5,30.25,NNE,33,0.0,0.0,99,0.00,,,0.00,0.00,VWS V14.01,2013-10-09 08:42:00,
2013-10-09 04:43:00,42.2,41.9,30.25,NNE,33,0.0,0.0,99,0.00,,,0.00,0.00,VWS V14.01,2013-10-09 08:43:00,
2013-10-09 04:44:00,42.4,42.0,30.25,NNE,33,0.0,0.0,99,0.00,,,0.00,0.00,VWS V14.01,2013-10-09 08:44:00,
2013-10-09 04:46:00,43.0,42.8,30.24,NNE,33,0.0,0.0,99,0.00,,,0.00,0.00,VWS V14.01,2013-10-09 08:46:00,
2013-10-09 04:47:00,42.5,42.4,30.25,NNE,33,0.0,0.0,99,0.00,,,0.00,0.00,VWS V14.01,2013-10-09 08:47:00,
2013-10-09 04:48:00,42.6,42.4,30.26,NNE,33,0.0,0.0,99,0.00,,,0.00,0.00,VWS V14.01,2013-10-09 08:48:00,
2013-10-09 04:49:00,42.2,42.1,30.25,NNE,33,0.0,0.0,99,0.00,,,0.00,0.00,VWS V14.01,2013-10-09 08:49:00,
2013-10-09 04:50:00,42.2,42.1,30.25,NNE,33,0.0,0.0,100,0.00,,,0.00,0.06,VWS V14.01,2013-10-09 08:50:00,
2013-10-09 04:52:00,42.4,42.4,30.26,NNE,32,0.0,0.0,100,0.00,,,0.00,0.43,VWS V14.01,2013-10-09 08:52:00,
2013-10-09 04:55:00,43.4,43.4,30.27,NNE,21,0.0,1.5,100,0.00,,,0.00,0.12,VWS V14.01,2013-10-09 08:55:00,
2013-10-09 04:57:00,43.1,43.1,30.25,NNE,21,0.0,0.0,100,0.00,,,0.00,0.00,VWS V14.01,2013-10-09 08:57:00,
2013-10-09 04:58:00,43.0,43.0,30.24,NNE,22,0.0,0.0,100,0.00,,,0.00,0.00,VWS V14.01,2013-10-09 08:58:00,
2013-10-09 04:59:00,43.0,43.0,30.24,NNE,23,1.1,1.1,100,0.00,,,0.00,0.00,VWS V14.01,2013-10-09 08:59:00,
2013-10-09 05:00:00,44.0,44.0,30.26,NNE,24,0.0,1.1,100,0.00,,,0.00,0.00,VWS V14.01,2013-10-09 09:00:00,
2013-10-09 05:01:00,44.0,44.0,30.26,NNE,24,0.0,1.1,100,0.00,,,0.00,0.00,VWS V14.01,2013-10-09 09:01:00,
2013-10-09 05:02:00,43.6,43.6,30.26,NNE,19,0.0,1.3,100,0.00,,,0.00,0.00,VWS V14.01,2013-10-09 09:02:00,
2013-10-09 05:04:00,43.5,43.5,30.25,NNE,19,0.0,0.0,100,0.00,,,0.00,0.00,VWS V14.01,2013-10-09 09:04:00,
2013-10-09 05:06:00,43.6,43.6,30.26,NNE,19,0.0,0.0,100,0.00,,,0.00,0.00,VWS V14.01,2013-10-09 09:06:00,
2013-10-09 05:07:00,43.4,43.4,30.26,NNE,19,0.0,0.0,100,0.00,,,0.00,0.00,VWS V14.01,2013-10-09 09:07:00,
2013-10-09 05:08:00,43.7,43.7,30.26,NNE,19,0.0,0.0,100,0.00,,,0.00,0.00,VWS V14.01,2013-10-09 09:08:00,
2013-10-09 05:11:00,45.2,45.2,30.25,NNE,19,0.0,0.0,100,0.00,,,0.00,0.00,VWS V14.01,2013-10-09 09:11:00,
2013-10-09 05:12:00,43.5,43.5,30.25,NNE,19,0.0,0.0,100,0.00,,,0.00,0.00,VWS V14.01,2013-10-09 09:12:00,
2013-10-09 05:13:00,43.8,43.8,30.25,NNE,19,0.0,0.0,100,0.00,,,0.00,0.00,VWS V14.01,2013-10-09 09:13:00,
2013-10-09 05:14:00,43.0,43.0,30.26,NNE,19,0.0,0.0,100,0.00,,,0.00,0.00,VWS V14.01,2013-10-09 09:14:00,
2013-10-09 05:17:00,41.1,41.1,30.26,NNE,18,0.0,0.0,100,0.00,,,0.00,0.00,VWS V14.01,2013-10-09 09:17:00,
2013-10-09 05:18:00,41.8,41.8,30.26,NNE,18,0.0,0.0,100,0.00,,,0.00,0.43,VWS V14.01,2013-10-09 09:18:00,
2013-10-09 05:19:00,41.8,41.8,30.30,NNE,18,0.0,0.0,100,0.00,,,0.00,0.73,VWS V14.01,2013-10-09 09:19:00,
2013-10-09 05:20:00,41.9,41.9,30.27,NNE,18,0.0,0.0,100,0.00,,,0.00,0.00,VWS V14.01,2013-10-09 09:20:00,
2013-10-09 05:22:00,41.6,41.6,30.25,NNE,18,0.0,0.0,100,0.00,,,0.00,0.00,VWS V14.01,2013-10-09 09:22:00,
2013-10-09 05:24:00,42.2,42.2,30.25,NNE,18,0.0,0.0,100,0.00,,,0.00,0.00,VWS V14.01,2013-10-09 09:24:00,
2013-10-09 05:25:00,42.3,42.3,30.26,NNE,18,0.0,0.0,100,0.00,,,0.00,0.00,VWS V14.01,2013-10-09 09:25:00,
2013-10-09 05:26:00,42.3,42.3,30.26,NNE,18,0.0,0.0,100,0.00,,,0.00,0.00,VWS V14.01,2013-10-09 09:26:00,
2013-10-09 05:30:00,41.8,41.8,30.26,NNE,18,0.0,0.0,100,0.00,,,0.00,0.00,VWS V14.01,2013-10-09 09:30:00,
2013-10-09 05:31:00,41.1,41.1,30.27,NNE,18,0.0,0.0,100,0.00,,,0.00,0.00,VWS V14.01,2013-10-09 09:31:00,
2013-10-09 05:32:00,41.6,41.6,30.26,NNE,18,0.0,0.0,100,0.00,,,0.00,0.00,VWS V14.01,2013-10-09 09:32:00,
2013-10-09 05:36:00,43.3,43.3,30.26,NNE,19,0.0,0.0,100,0.00,,,0.00,0.12,VWS V14.01,2013-10-09 09:36:00,
2013-10-09 05:37:00,43.2,43.2,30.25,NNE,19,1.0,1.0,100,0.00,,,0.00,0.00,VWS V14.01,2013-10-09 09:37:00,
2013-10-09 05:38:00,42.6,42.6,30.25,NNE,19,0.0,1.0,100,0.00,,,0.00,0.43,VWS V14.01,2013-10-09 09:38:00,
2013-10-09 05:42:00,41.9,41.9,30.25,NNE,19,0.0,0.0,100,0.00,,,0.00,0.00,VWS V14.01,2013-10-09 09:42:00,
2013-10-09 05:43:00,42.1,42.1,30.26,NNE,19,0.0,0.0,100,0.00,,,0.00,0.00,VWS V14.01,2013-10-09 09:43:00,
2013-10-09 05:44:00,41.9,41.9,30.26,NNE,19,0.0,0.0,100,0.00,,,0.00,0.00,VWS V14.01,2013-10-09 09:44:00,
2013-10-09 05:45:00,41.6,41.6,30.26,NNE,19,0.0,0.0,100,0.00,,,0.00,0.00,VWS V14.01,2013-10-09 09:45:00,
2013-10-09 05:47:00,41.8,41.8,30.27,NNE,19,0.0,0.0,100,0.00,,,0.00,0.00,VWS V14.01,2013-10-09 09:47:00,
2013-10-09 05:48:00,42.1,42.1,30.27,NNE,19,0.0,0.0,100,0.00,,,0.00,0.00,VWS V14.01,2013-10-09 09:48:00,
2013-10-09 05:50:00,41.6,41.6,30.26,NE,40,0.0,0.0,100,0.00,,,0.00,0.00,VWS V14.01,2013-10-09 09:50:00,
2013-10-09 05:51:00,41.3,41.3,30.26,NE,40,0.0,0.0,100,0.00,,,0.00,0.00,VWS V14.01,2013-10-09 09:51:00,
2013-10-09 05:53:00,41.2,41.2,30.26,NE,39,0.0,0.0,100,0.00,,,0.00,0.00,VWS V14.01,2013-10-09 09:53:00,
2013-10-09 05:54:00,41.0,41.0,30.25,NE,39,0.0,0.0,100,0.00,,,0.00,0.00,VWS V14.01,2013-10-09 09:54:00,
2013-10-09 05:57:00,40.9,40.9,30.26,NE,38,0.0,0.0,100,0.00,,,0.00,0.00,VWS V14.01,2013-10-09 09:57:00,
2013-10-09 05:58:00,40.6,40.6,30.26,NE,38,0.0,0.0,100,0.00,,,0.00,0.00,VWS V14.01,2013-10-09 09:58:00,
2013-10-09 05:59:00,40.9,40.9,30.27,NE,38,0.0,0.0,100,0.00,,,0.00,0.00,VWS V14.01,2013-10-09 09:59:00,
2013-10-09 06:00:00,41.3,41.1,30.27,NE,39,0.0,0.0,99,0.00,,,0.00,0.00,VWS V14.01,2013-10-09 10:00:00,
2013-10-09 06:01:00,40.8,40.8,30.27,NE,39,0.0,0.0,100,0.00,,,0.00,0.00,VWS V14.01,2013-10-09 10:01:00,
2013-10-09 06:02:00,40.9,40.9,30.27,NE,40,0.0,0.0,100,0.00,,,0.00,0.43,VWS V14.01,2013-10-09 10:02:00,
2013-10-09 06:05:00,41.1,41.1,30.27,NE,40,0.0,0.0,100,0.00,,,0.00,0.12,VWS V14.01,2013-10-09 10:05:00,
2013-10-09 06:06:00,41.2,41.2,30.26,NE,40,0.0,0.0,100,0.00,,,0.00,0.00,VWS V14.01,2013-10-09 10:06:00,
2013-10-09 06:07:00,40.5,40.5,30.27,NE,40,0.0,0.0,100,0.00,,,0.00,0.00,VWS V14.01,2013-10-09 10:07:00,
2013-10-09 06:08:00,40.5,40.5,30.27,NE,40,0.0,0.0,100,0.00,,,0.00,0.00,VWS V14.01,2013-10-09 10:08:00,
2013-10-09 06:09:00,39.9,39.9,30.28,NE,39,0.0,0.0,100,0.00,,,0.00,0.00,VWS V14.01,2013-10-09 10:09:00,
2013-10-09 06:10:00,39.9,39.9,30.27,NE,39,0.0,0.0,100,0.00,,,0.00,0.00,VWS V14.01,2013-10-09 10:10:00,
2013-10-09 06:12:00,39.8,39.8,30.26,NE,39,0.0,0.0,100,0.00,,,0.00,0.00,VWS V14.01,2013-10-09 10:12:00,
2013-10-09 06:13:00,40.2,40.2,30.26,NE,40,0.0,0.0,100,0.00,,,0.00,0.00,VWS V14.01,2013-10-09 10:13:00,
2013-10-09 06:14:00,40.3,40.3,30.26,NE,38,0.0,0.0,100,0.00,,,0.00,0.00,VWS V14.01,2013-10-09 10:14:00,
2013-10-09 06:15:00,41.4,41.4,30.26,NE,40,0.0,0.0,100,0.00,,,0.00,0.00,VWS V14.01,2013-10-09 10:15:00,
2013-10-09 06:16:00,41.2,41.2,30.26,NE,38,0.0,0.0,100,0.00,,,0.00,0.00,VWS V14.01,2013-10-09 10:16:00,
2013-10-09 06:17:00,41.4,41.4,30.27,NE,38,0.0,0.0,100,0.00,,,0.00,0.00,VWS V14.01,2013-10-09 10:17:00,
2013-10-09 06:18:00,41.8,41.8,30.27,NE,39,0.0,0.0,100,0.00,,,0.00,0.00,VWS V14.01,2013-10-09 10:18:00,
2013-10-09 06:21:00,40.0,40.0,30.26,NNE,16,0.0,0.0,100,0.00,,,0.00,0.00,VWS V14.01,2013-10-09 10:21:00,
2013-10-09 06:22:00,40.0,40.0,30.26,NNE,16,0.0,0.0,100,0.00,,,0.00,0.00,VWS V14.01,2013-10-09 10:22:00,
2013-10-09 06:23:00,39.7,39.7,30.27,NNE,16,0.0,0.0,100,0.00,,,0.00,0.00,VWS V14.01,2013-10-09 10:23:00,
2013-10-09 06:24:00,39.6,39.6,30.28,NNE,16,0.0,0.0,100,0.00,,,0.00,0.00,VWS V14.01,2013-10-09 10:24:00,
2013-10-09 06:28:00,40.6,40.6,30.27,NNE,16,0.0,0.0,100,0.00,,,0.00,0.00,VWS V14.01,2013-10-09 10:28:00,
2013-10-09 06:30:00,39.9,39.9,30.30,NNE,16,0.0,0.0,100,0.00,,,0.00,0.00,VWS V14.01,2013-10-09 10:30:00,
2013-10-09 06:32:00,40.2,40.2,30.27,NNE,16,0.0,0.0,100,0.00,,,0.00,0.00,VWS V14.01,2013-10-09 10:32:00,
2013-10-09 06:33:00,39.2,38.4,30.27,NNE,16,0.0,0.0,97,0.00,,,0.00,0.00,VWS V14.01,2013-10-09 10:33:00,
2013-10-09 06:34:00,39.8,39.8,30.28,NNE,16,0.0,0.0,100,0.00,,,0.00,0.00,VWS V14.01,2013-10-09 10:34:00,
2013-10-09 06:36:00,41.0,41.0,30.27,NNE,16,0.0,0.0,100,0.00,,,0.00,0.00,VWS V14.01,2013-10-09 10:36:00,
2013-10-09 06:37:00,41.5,41.5,30.28,NNE,16,0.0,0.0,100,0.00,,,0.00,0.00,VWS V14.01,2013-10-09 10:37:00,
2013-10-09 06:38:00,40.8,40.8,30.28,NNE,16,0.0,0.0,100,0.00,,,0.00,0.00,VWS V14.01,2013-10-09 10:38:00,
2013-10-09 06:40:00,40.1,40.1,30.27,NNE,16,0.0,0.0,100,0.00,,,0.00,0.00,VWS V14.01,2013-10-09 10:40:00,
2013-10-09 06:42:00,40.8,40.8,30.27,NNE,16,0.0,0.0,100,0.00,,,0.00,0.00,VWS V14.01,2013-10-09 10:42:00,
2013-10-09 06:43:00,41.8,41.8,30.27,NNE,16,0.0,0.0,100,0.00,,,0.00,0.00,VWS V14.01,2013-10-09 10:43:00,
2013-10-09 06:44:00,41.2,41.2,30.31,NNE,13,0.0,0.0,100,0.00,,,0.00,0.00,VWS V14.01,2013-10-09 10:44:00,
2013-10-09 06:46:00,41.4,41.4,30.28,NNE,13,0.0,0.0,100,0.00,,,0.00,0.12,VWS V14.01,2013-10-09 10:46:00,
2013-10-09 06:47:00,40.4,40.4,30.28,NNE,13,0.0,0.0,100,0.00,,,0.00,0.00,VWS V14.01,2013-10-09 10:47:00,
2013-10-09 06:48:00,40.0,40.0,30.28,NNE,13,0.0,0.0,100,0.00,,,0.00,0.00,VWS V14.01,2013-10-09 10:48:00,
2013-10-09 06:51:00,40.1,40.1,30.28,NNE,13,0.0,0.0,100,0.00,,,0.00,0.00,VWS V14.01,2013-10-09 10:51:00,
2013-10-09 06:52:00,41.2,41.2,30.28,NNE,13,0.0,0.0,100,0.00,,,0.00,0.00,VWS V14.01,2013-10-09 10:52:00,
2013-10-09 06:53:00,41.2,41.2,30.28,NNE,17,0.0,0.0,100,0.00,,,0.00,0.00,VWS V14.01,2013-10-09 10:53:00,
2013-10-09 06:54:00,42.0,42.0,30.28,NNE,21,0.0,0.0,100,0.00,,,0.00,0.00,VWS V14.01,2013-10-09 10:54:00,
2013-10-09 06:58:00,40.8,40.8,30.28,NNE,20,0.0,0.0,100,0.00,,,0.00,0.00,VWS V14.01,2013-10-09 10:58:00,
2013-10-09 06:59:00,40.8,40.8,30.28,NNE,20,0.0,0.0,100,0.00,,,0.00,0.00,VWS V14.01,2013-10-09 10:59:00,
2013-10-09 07:00:00,40.9,40.9,30.27,NNE,20,0.0,0.0,100,0.00,,,0.00,0.00,VWS V14.01,2013-10-09 11:00:00,
2013-10-09 07:04:00,40.5,40.5,30.28,North,6,0.0,0.0,100,0.00,,,0.00,0.43,VWS V14.01,2013-10-09 11:04:00,
2013-10-09 07:06:00,40.5,40.5,30.28,NNE,16,0.0,0.0,100,0.00,,,0.00,0.00,VWS V14.01,2013-10-09 11:06:00,
2013-10-09 07:09:00,42.4,42.4,30.28,NNE,31,0.0,0.0,100,0.00,,,0.00,0.00,VWS V14.01,2013-10-09 11:09:00,
2013-10-09 07:10:00,42.1,42.1,30.28,NNE,33,1.1,1.1,100,0.00,,,0.00,0.00,VWS V14.01,2013-10-09 11:10:00,
2013-10-09 07:11:00,42.1,42.1,30.28,NNE,33,1.1,1.1,100,0.00,,,0.00,0.00,VWS V14.01,2013-10-09 11:11:00,
2013-10-09 07:12:00,43.0,43.0,30.27,NNE,29,1.3,2.5,100,0.00,,,0.00,0.00,VWS V14.01,2013-10-09 11:12:00,
2013-10-09 07:16:00,42.3,42.3,30.28,NNE,28,1.5,1.5,100,0.00,,,0.00,0.00,VWS V14.01,2013-10-09 11:16:00,
2013-10-09 07:17:00,42.7,42.7,30.29,NNE,13,3.2,3.2,100,0.00,,,0.00,0.00,VWS V14.01,2013-10-09 11:17:00,
2013-10-09 07:18:00,42.7,42.7,30.28,NNE,15,0.0,3.2,100,0.00,,,0.00,0.00,VWS V14.01,2013-10-09 11:18:00,
2013-10-09 07:19:00,41.6,41.6,30.28,NNE,24,0.0,0.0,100,0.00,,,0.00,0.00,VWS V14.01,2013-10-09 11:19:00,
2013-10-09 07:21:00,42.0,42.0,30.28,North,8,0.0,0.0,100,0.00,,,0.00,0.00,VWS V14.01,2013-10-09 11:21:00,
2013-10-09 07:22:00,41.3,41.3,30.29,North,8,0.0,0.0,100,0.00,,,0.00,0.00,VWS V14.01,2013-10-09 11:22:00,
2013-10-09 07:23:00,41.3,41.3,30.28,North,8,0.0,0.0,100,0.00,,,0.00,0.00,VWS V14.01,2013-10-09 11:23:00,
2013-10-09 07:24:00,41.3,41.3,30.29,North,8,0.0,0.0,100,0.00,,,0.00,0.00,VWS V14.01,2013-10-09 11:24:00,
2013-10-09 07:25:00,42.2,42.2,30.28,NNE,28,0.0,0.0,100,0.00,,,0.00,0.00,VWS V14.01,2013-10-09 11:25:00,
2013-10-09 07:26:00,43.2,43.2,30.27,NNE,30,0.0,0.0,100,0.00,,,0.00,0.00,VWS V14.01,2013-10-09 11:26:00,
2013-10-09 07:27:00,43.3,43.3,30.28,North,7,1.3,1.3,100,0.00,,,0.00,0.00,VWS V14.01,2013-10-09 11:27:00,
2013-10-09 07:29:00,43.0,43.0,30.28,NNE,29,0.0,1.1,100,0.00,,,0.00,0.00,VWS V14.01,2013-10-09 11:29:00,
2013-10-09 07:30:00,42.9,42.9,30.28,NNE,24,0.0,0.0,100,0.00,,,0.00,0.00,VWS V14.01,2013-10-09 11:30:00,
2013-10-09 07:31:00,43.7,43.1,30.28,NNE,20,0.0,2.0,98,0.00,,,0.00,0.55,VWS V14.01,2013-10-09 11:31:00,
2013-10-09 07:32:00,43.0,43.0,30.28,NNE,23,0.0,0.0,100,0.00,,,0.00,0.00,VWS V14.01,2013-10-09 11:32:00,
2013-10-09 07:35:00,41.9,41.9,30.28,NNE,19,0.0,0.0,100,0.00,,,0.00,1.40,VWS V14.01,2013-10-09 11:35:00,
2013-10-09 07:36:00,41.6,41.6,30.28,NNE,19,0.0,0.0,100,0.00,,,0.00,1.28,VWS V14.01,2013-10-09 11:36:00,
2013-10-09 07:40:00,41.4,41.4,30.28,NNE,19,0.0,0.0,100,0.00,,,0.00,2.26,VWS V14.01,2013-10-09 11:40:00,
2013-10-09 07:41:00,41.3,41.3,30.27,NNE,19,0.0,0.0,100,0.00,,,0.00,2.50,VWS V14.01,2013-10-09 11:41:00,
2013-10-09 07:43:00,40.8,40.8,30.27,NNE,19,0.0,0.0,100,0.00,,,0.00,4.70,VWS V14.01,2013-10-09 11:43:00,
2013-10-09 07:46:00,40.8,40.8,30.27,NNE,19,0.0,0.0,100,0.00,,,0.00,5.43,VWS V14.01,2013-10-09 11:46:00,
2013-10-09 07:47:00,40.6,40.6,30.28,NNE,19,0.0,0.0,100,0.00,,,0.00,6.41,VWS V14.01,2013-10-09 11:47:00,
2013-10-09 07:48:00,40.8,40.8,30.28,NNE,19,0.0,0.0,100,0.00,,,0.00,6.29,VWS V14.01,2013-10-09 11:48:00,
2013-10-09 07:49:00,41.5,41.5,30.28,NNE,19,0.0,0.0,100,0.00,,,0.00,10.56,VWS V14.01,2013-10-09 11:49:00,
2013-10-09 07:52:00,41.0,41.0,30.28,NNE,19,0.0,0.0,100,0.00,,,0.00,16.91,VWS V14.01,2013-10-09 11:52:00,
2013-10-09 07:53:00,40.8,40.8,30.28,NNE,19,0.0,0.0,100,0.00,,,0.00,19.84,VWS V14.01,2013-10-09 11:53:00,
2013-10-09 07:54:00,40.8,40.8,30.28,NNE,19,0.0,0.0,100,0.00,,,0.00,22.71,VWS V14.01,2013-10-09 11:54:00,
2013-10-09 07:55:00,40.9,40.9,30.29,NNE,19,0.0,0.0,100,0.00,,,0.00,25.89,VWS V14.01,2013-10-09 11:55:00,
2013-10-09 07:56:00,41.0,41.0,30.29,NNE,19,0.0,0.0,100,0.00,,,0.00,28.39,VWS V14.01,2013-10-09 11:56:00,
2013-10-09 07:57:00,41.3,41.3,30.32,NNE,19,0.0,0.0,100,0.00,,,0.00,29.12,VWS V14.01,2013-10-09 11:57:00,
2013-10-09 07:58:00,41.5,41.5,30.29,NNE,19,0.0,0.0,100,0.00,,,0.00,31.32,VWS V14.01,2013-10-09 11:58:00,
2013-10-09 07:59:00,42.1,42.1,30.28,NNE,19,0.0,0.0,100,0.00,,,0.00,34.25,VWS V14.01,2013-10-09 11:59:00,
2013-10-09 08:01:00,42.5,42.5,30.28,NNE,19,0.0,0.0,100,0.00,,,0.00,36.75,VWS V14.01,2013-10-09 12:01:00,
2013-10-09 08:02:00,42.8,42.8,30.27,NNE,19,0.0,0.0,100,0.00,,,0.00,41.09,VWS V14.01,2013-10-09 12:02:00,
2013-10-09 08:03:00,43.0,43.0,30.27,NNE,19,0.0,0.0,100,0.00,,,0.00,41.51,VWS V14.01,2013-10-09 12:03:00,
2013-10-09 08:04:00,43.0,43.0,30.28,NNE,19,0.0,0.0,100,0.00,,,0.00,45.91,VWS V14.01,2013-10-09 12:04:00,
2013-10-09 08:05:00,43.0,43.0,30.27,NNE,19,0.0,0.0,100,0.00,,,0.00,49.39,VWS V14.01,2013-10-09 12:05:00,
2013-10-09 08:06:00,43.3,43.3,30.28,NNE,19,0.0,0.0,100,0.00,,,0.00,51.71,VWS V14.01,2013-10-09 12:06:00,
2013-10-09 08:08:00,42.5,42.5,30.29,NNE,19,0.0,0.0,100,0.00,,,0.00,56.96,VWS V14.01,2013-10-09 12:08:00,
2013-10-09 08:11:00,42.8,42.8,30.28,NNE,19,0.0,0.0,100,0.00,,,0.00,62.21,VWS V14.01,2013-10-09 12:11:00,
2013-10-09 08:12:00,43.1,43.1,30.29,NNE,19,0.0,0.0,100,0.00,,,0.00,65.75,VWS V14.01,2013-10-09 12:12:00,
2013-10-09 08:14:00,43.9,43.9,30.28,NNE,19,0.0,0.0,100,0.00,,,0.00,70.88,VWS V14.01,2013-10-09 12:14:00,
2013-10-09 08:15:00,45.1,45.1,30.29,NNE,19,0.0,0.0,100,0.00,,,0.00,73.08,VWS V14.01,2013-10-09 12:15:00,
2013-10-09 08:17:00,43.8,43.8,30.29,NNE,19,0.0,0.0,100,0.00,,,0.00,77.96,VWS V14.01,2013-10-09 12:17:00,
2013-10-09 08:18:00,44.0,44.0,30.29,NNE,19,0.0,0.0,100,0.00,,,0.00,80.40,VWS V14.01,2013-10-09 12:18:00,
2013-10-09 08:19:00,44.2,44.2,30.32,NNE,19,0.0,0.0,100,0.00,,,0.00,82.84,VWS V14.01,2013-10-09 12:19:00,
2013-10-09 08:20:00,44.0,44.0,30.29,NNE,19,0.0,0.0,100,0.00,,,0.00,86.02,VWS V14.01,2013-10-09 12:20:00,
2013-10-09 08:21:00,44.0,44.0,30.29,NNE,19,0.0,0.0,100,0.00,,,0.00,86.02,VWS V14.01,2013-10-09 12:21:00,
2013-10-09 08:22:00,43.5,43.5,30.29,NNE,19,0.0,0.0,100,0.00,,,0.00,91.39,VWS V14.01,2013-10-09 12:22:00,
2013-10-09 08:23:00,43.8,43.8,30.29,NNE,19,0.0,0.0,100,0.00,,,0.00,92.61,VWS V14.01,2013-10-09 12:23:00,
2013-10-09 08:24:00,43.0,43.0,30.29,NNE,19,0.0,0.0,100,0.00,,,0.00,95.06,VWS V14.01,2013-10-09 12:24:00,
2013-10-09 08:25:00,43.6,43.6,30.29,NNE,19,0.0,0.0,100,0.00,,,0.00,97.74,VWS V14.01,2013-10-09 12:25:00,
2013-10-09 08:26:00,43.9,43.9,30.29,NNE,19,0.0,0.0,100,0.00,,,0.00,99.94,VWS V14.01,2013-10-09 12:26:00,
2013-10-09 08:27:00,42.9,42.9,30.29,NNE,19,0.0,0.0,100,0.00,,,0.00,102.08,VWS V14.01,2013-10-09 12:27:00,
2013-10-09 08:28:00,43.0,43.0,30.28,NNE,19,0.0,0.0,100,0.00,,,0.00,104.33,VWS V14.01,2013-10-09 12:28:00,
2013-10-09 08:29:00,43.0,43.0,30.29,NNE,19,0.0,0.0,100,0.00,,,0.00,103.79,VWS V14.01,2013-10-09 12:29:00,
2013-10-09 08:30:00,43.2,43.2,30.29,NNE,19,0.0,0.0,100,0.00,,,0.00,109.46,VWS V14.01,2013-10-09 12:30:00,
2013-10-09 08:31:00,43.2,43.2,30.29,NNE,19,0.0,0.0,100,0.00,,,0.00,109.46,VWS V14.01,2013-10-09 12:31:00,
2013-10-09 08:33:00,43.2,43.2,30.29,NNE,19,0.0,0.0,100,0.00,,,0.00,109.46,VWS V14.01,2013-10-09 12:33:00,
2013-10-09 08:36:00,47.4,46.2,30.29,NNE,19,0.0,0.0,96,0.00,,,0.00,121.92,VWS V14.01,2013-10-09 12:36:00,
2013-10-09 08:37:00,45.3,43.5,30.29,NNE,19,0.0,0.0,93,0.00,,,0.00,124.66,VWS V14.01,2013-10-09 12:37:00,
2013-10-09 08:38:00,46.0,43.7,30.28,NNE,19,0.0,0.0,92,0.00,,,0.00,125.76,VWS V14.01,2013-10-09 12:38:00,
2013-10-09 08:40:00,46.5,43.8,30.29,NNE,12,0.0,0.0,90,0.00,,,0.00,130.40,VWS V14.01,2013-10-09 12:40:00,
2013-10-09 08:41:00,46.8,44.0,30.28,NNE,21,2.2,2.2,90,0.00,,,0.00,132.54,VWS V14.01,2013-10-09 12:41:00,
2013-10-09 08:43:00,47.3,44.8,30.29,NNE,25,0.0,2.5,91,0.00,,,0.00,137.79,VWS V14.01,2013-10-09 12:43:00,
2013-10-09 08:44:00,47.0,44.4,30.29,NNE,23,2.7,2.7,91,0.00,,,0.00,139.01,VWS V14.01,2013-10-09 12:44:00,
2013-10-09 08:45:00,47.3,44.7,30.29,NNE,23,2.0,2.0,91,0.00,,,0.00,140.60,VWS V14.01,2013-10-09 12:45:00,
2013-10-09 08:46:00,47.6,45.0,30.32,NNE,24,0.0,0.0,91,0.00,,,0.00,143.90,VWS V14.01,2013-10-09 12:46:00,
2013-10-09 08:47:00,48.2,45.5,30.29,NE,36,0.0,0.0,90,0.00,,,0.00,148.78,VWS V14.01,2013-10-09 12:47:00,
2013-10-09 08:48:00,48.2,45.2,30.29,NNE,26,0.0,0.0,89,0.00,,,0.00,148.53,VWS V14.01,2013-10-09 12:48:00,
2013-10-09 08:49:00,48.0,44.6,30.28,NE,34,1.8,1.8,88,0.00,,,0.00,151.40,VWS V14.01,2013-10-09 12:49:00,
2013-10-09 08:50:00,48.4,44.7,30.28,NNE,30,0.0,2.2,87,0.00,,,0.00,152.93,VWS V14.01,2013-10-09 12:50:00,
2013-10-09 08:51:00,48.6,44.8,30.31,NE,42,1.1,1.3,87,0.00,,,0.00,156.72,VWS V14.01,2013-10-09 12:51:00,
2013-10-09 08:52:00,48.6,44.8,30.31,NE,42,1.1,1.3,87,0.00,,,0.00,156.72,VWS V14.01,2013-10-09 12:52:00,
2013-10-09 08:54:00,48.5,44.2,30.28,NE,38,2.3,2.3,85,0.00,,,0.00,165.87,VWS V14.01,2013-10-09 12:54:00,
2013-10-09 08:55:00,48.5,44.0,30.29,NNE,26,2.7,2.7,84,0.00,,,0.00,162.45,VWS V14.01,2013-10-09 12:55:00,
2013-10-09 08:56:00,48.4,43.9,30.29,NE,43,0.0,2.7,84,0.00,,,0.00,165.63,VWS V14.01,2013-10-09 12:56:00,
2013-10-09 08:58:00,48.7,44.3,30.29,NE,50,1.3,3.0,85,0.00,,,0.00,168.32,VWS V14.01,2013-10-09 12:58:00,
2013-10-09 08:59:00,49.0,44.5,30.29,NE,48,0.0,3.0,84,0.00,,,0.00,171.98,VWS V14.01,2013-10-09 12:59:00,
2013-10-09 09:00:00,49.1,44.3,30.29,NE,42,1.1,2.3,84,0.00,,,0.00,172.59,VWS V14.01,2013-10-09 13:00:00,
2013-10-09 09:02:00,49.0,44.1,30.28,NE,44,0.0,2.3,83,0.00,,,0.00,177.53,VWS V14.01,2013-10-09 13:02:00,
2013-10-09 09:04:00,48.7,43.3,30.29,NE,44,3.0,3.0,81,0.00,,,0.00,181.50,VWS V14.01,2013-10-09 13:04:00,
2013-10-09 09:05:00,48.9,43.5,30.29,NE,40,1.3,3.0,82,0.00,,,0.00,184.19,VWS V14.01,2013-10-09 13:05:00,
2013-10-09 09:06:00,49.2,44.1,30.28,NNE,25,0.0,1.3,82,0.00,,,0.00,184.68,VWS V14.01,2013-10-09 13:06:00,
2013-10-09 09:07:00,49.0,43.3,30.29,NE,48,1.0,1.0,81,0.00,,,0.00,182.72,VWS V14.01,2013-10-09 13:07:00,
2013-10-09 09:10:00,49.3,43.6,30.29,NE,52,2.3,2.3,81,0.00,,,0.00,192.67,VWS V14.01,2013-10-09 13:10:00,
2013-10-09 09:12:00,49.2,43.0,30.28,NE,44,2.2,2.7,79,0.00,,,0.00,198.35,VWS V14.01,2013-10-09 13:12:00,
2013-10-09 09:13:00,49.5,43.4,30.28,NNE,17,3.4,3.4,79,0.00,,,0.00,200.06,VWS V14.01,2013-10-09 13:13:00,
2013-10-09 09:16:00,49.3,43.4,30.29,NE,38,3.4,3.4,80,0.00,,,0.00,208.79,VWS V14.01,2013-10-09 13:16:00,
2013-10-09 09:18:00,49.6,43.3,30.28,NNE,33,2.7,2.8,79,0.00,,,0.00,209.83,VWS V14.01,2013-10-09 13:18:00,
2013-10-09 09:19:00,49.8,43.4,30.28,NE,44,2.7,3.9,79,0.00,,,0.00,212.88,VWS V14.01,2013-10-09 13:19:00,
2013-10-09 09:20:00,50.4,44.2,30.28,NE,34,0.0,2.0,79,0.00,,,0.00,214.59,VWS V14.01,2013-10-09 13:20:00,
2013-10-09 09:21:00,50.2,43.5,30.28,NNE,27,2.7,3.0,78,0.00,,,0.00,216.00,VWS V14.01,2013-10-09 13:21:00,
2013-10-09 09:22:00,51.2,44.6,30.27,NE,34,0.0,2.7,78,0.00,,,0.00,219.66,VWS V14.01,2013-10-09 13:22:00,
2013-10-09 09:23:00,50.3,43.1,30.31,NNE,29,3.2,3.7,76,0.00,,,0.00,222.41,VWS V14.01,2013-10-09 13:23:00,
2013-10-09 09:24:00,50.4,43.6,30.29,NE,47,2.2,3.2,78,0.00,,,0.00,224.48,VWS V14.01,2013-10-09 13:24:00,
2013-10-09 09:25:00,50.6,43.7,30.29,NNE,27,2.0,2.2,77,0.00,,,0.00,224.48,VWS V14.01,2013-10-09 13:25:00,
2013-10-09 09:26:00,50.8,43.3,30.29,NNE,26,3.2,3.2,75,0.00,,,0.00,228.63,VWS V14.01,2013-10-09 13:26:00,
2013-10-09 09:27:00,50.2,42.2,30.28,NE,43,3.2,4.2,74,0.00,,,0.00,231.81,VWS V14.01,2013-10-09 13:27:00,
2013-10-09 09:28:00,52.0,44.7,30.28,NNE,24,1.6,3.2,76,0.00,,,0.00,235.16,VWS V14.01,2013-10-09 13:28:00,
2013-10-09 09:29:00,51.3,43.3,30.28,NE,53,2.0,2.3,74,0.00,,,0.00,237.00,VWS V14.01,2013-10-09 13:29:00,
2013-10-09 09:30:00,51.5,43.5,30.28,NE,43,2.7,2.7,74,0.00,,,0.00,239.87,VWS V14.01,2013-10-09 13:30:00,
2013-10-09 09:31:00,51.2,42.9,30.28,NE,37,1.8,2.7,73,0.00,,,0.00,241.33,VWS V14.01,2013-10-09 13:31:00,
2013-10-09 09:33:00,51.2,41.9,30.28,NNE,33,1.6,2.2,70,0.00,,,0.00,246.46,VWS V14.01,2013-10-09 13:33:00,
2013-10-09 09:34:00,51.2,41.9,30.28,NNE,33,1.6,2.2,70,0.00,,,0.00,246.46,VWS V14.01,2013-10-09 13:34:00,
2013-10-09 09:36:00,51.5,42.2,30.27,NE,34,2.0,2.7,70,0.00,,,0.00,254.46,VWS V14.01,2013-10-09 13:36:00,
2013-10-09 09:37:00,51.5,42.2,30.27,NE,34,2.0,2.7,70,0.00,,,0.00,254.46,VWS V14.01,2013-10-09 13:37:00,
2013-10-09 09:38:00,52.3,42.6,30.28,NNE,22,2.0,2.0,70,0.00,,,0.00,256.23,VWS V14.01,2013-10-09 13:38:00,
2013-10-09 09:40:00,51.7,42.2,30.28,NE,36,1.8,2.3,70,0.00,,,0.00,262.09,VWS V14.01,2013-10-09 13:40:00,
2013-10-09 09:41:00,51.8,41.4,30.28,ENE,57,3.4,3.4,68,0.00,,,0.00,264.29,VWS V14.01,2013-10-09 13:41:00,
2013-10-09 09:42:00,52.0,41.8,30.28,NE,41,2.7,3.4,68,0.00,,,0.00,266.30,VWS V14.01,2013-10-09 13:42:00,
2013-10-09 09:43:00,51.8,41.2,30.29,NE,40,1.8,1.8,67,0.00,,,0.00,268.44,VWS V14.01,2013-10-09 13:43:00,
2013-10-09 09:44:00,52.7,42.6,30.28,NNE,32,2.5,2.5,68,0.00,,,0.00,272.83,VWS V14.01,2013-10-09 13:44:00,
2013-10-09 09:46:00,52.2,41.5,30.28,NNE,31,2.3,2.3,67,0.00,,,0.00,273.32,VWS V14.01,2013-10-09 13:46:00,
2013-10-09 09:48:00,53.4,43.0,30.28,ENE,67,2.8,2.8,68,0.00,,,0.00,278.21,VWS V14.01,2013-10-09 13:48:00,
2013-10-09 09:49:00,53.5,42.9,30.28,NE,44,0.0,2.8,67,0.00,,,0.00,280.65,VWS V14.01,2013-10-09 13:49:00,
2013-10-09 09:50:00,53.2,42.9,30.28,NNE,30,0.0,0.0,68,0.00,,,0.00,283.70,VWS V14.01,2013-10-09 13:50:00,
2013-10-09 09:51:00,53.2,41.4,30.29,NE,46,1.1,2.7,64,0.00,,,0.00,286.02,VWS V14.01,2013-10-09 13:51:00,
2013-10-09 09:53:00,52.9,40.7,30.31,NE,38,3.4,3.4,63,0.00,,,0.00,290.84,VWS V14.01,2013-10-09 13:53:00,
2013-10-09 09:55:00,53.5,41.3,30.28,NNE,27,2.5,2.5,63,0.00,,,0.00,294.99,VWS V14.01,2013-10-09 13:55:00,
2013-10-09 09:56:00,53.1,40.4,30.28,NE,37,3.2,3.2,62,0.00,,,0.00,298.05,VWS V14.01,2013-10-09 13:56:00,
2013-10-09 09:59:00,53.6,40.6,30.28,NE,50,2.0,2.8,61,0.00,,,0.00,306.04,VWS V14.01,2013-10-09 13:59:00,
2013-10-09 10:00:00,53.8,40.5,30.28,NE,41,2.5,2.8,61,0.00,,,0.00,309.22,VWS V14.01,2013-10-09 14:00:00,
2013-10-09 10:01:00,54.9,41.6,30.28,ENE,72,1.6,2.5,61,0.00,,,0.00,309.95,VWS V14.01,2013-10-09 14:01:00,
2013-10-09 10:02:00,55.3,41.7,30.31,ENE,72,0.0,1.6,60,0.00,,,0.00,312.39,VWS V14.01,2013-10-09 14:02:00,
2013-10-09 10:05:00,54.7,39.4,30.27,ENE,78,2.8,2.8,56,0.00,,,0.00,319.23,VWS V14.01,2013-10-09 14:05:00,
2013-10-09 10:06:00,56.1,40.7,30.27,ESE,107,1.3,3.4,56,0.00,,,0.00,323.08,VWS V14.01,2013-10-09 14:06:00,
2013-10-09 10:07:00,57.9,42.6,30.26,ENE,73,0.0,2.3,57,0.00,,,0.00,326.31,VWS V14.01,2013-10-09 14:07:00,
2013-10-09 10:08:00,54.8,39.3,30.27,ENE,59,3.4,3.4,56,0.00,,,0.00,327.35,VWS V14.01,2013-10-09 14:08:00,
2013-10-09 10:10:00,56.8,40.4,30.28,East,83,1.6,1.6,54,0.00,,,0.00,331.93,VWS V14.01,2013-10-09 14:10:00,
2013-10-09 10:11:00,56.9,41.1,30.28,East,99,1.8,2.7,55,0.00,,,0.00,335.59,VWS V14.01,2013-10-09 14:11:00,
2013-10-09 10:13:00,56.7,40.6,30.27,NE,52,4.0,4.0,55,0.00,,,0.00,339.99,VWS V14.01,2013-10-09 14:13:00,
2013-10-09 10:15:00,56.3,38.8,30.27,East,82,2.7,3.5,52,0.00,,,0.00,345.12,VWS V14.01,2013-10-09 14:15:00,
2013-10-09 10:16:00,56.3,38.8,30.27,East,82,2.7,3.5,52,0.00,,,0.00,345.12,VWS V14.01,2013-10-09 14:16:00,
2013-10-09 10:18:00,57.3,40.1,30.28,East,89,0.0,2.8,53,0.00,,,0.00,350.73,VWS V14.01,2013-10-09 14:18:00,
2013-10-09 10:20:00,56.6,39.1,30.28,East,79,0.0,3.0,52,0.00,,,0.00,357.20,VWS V14.01,2013-10-09 14:20:00,
2013-10-09 10:21:00,58.3,41.2,30.28,SE,140,0.0,3.0,53,0.00,,,0.00,358.30,VWS V14.01,2013-10-09 14:21:00,
2013-10-09 10:23:00,59.1,41.3,30.27,ENE,73,1.3,1.3,52,0.00,,,0.00,362.45,VWS V14.01,2013-10-09 14:23:00,
2013-10-09 10:25:00,59.5,41.8,30.28,SE,137,0.0,3.0,52,0.00,,,0.00,368.56,VWS V14.01,2013-10-09 14:25:00,
2013-10-09 10:26:00,59.0,40.5,30.28,ESE,111,1.1,1.1,50,0.00,,,0.00,369.54,VWS V14.01,2013-10-09 14:26:00,
2013-10-09 10:28:00,56.9,36.4,30.28,East,98,2.5,4.2,46,0.00,,,0.00,375.21,VWS V14.01,2013-10-09 14:28:00,
2013-10-09 10:29:00,57.8,38.0,30.27,East,83,2.5,3.7,48,0.00,,,0.00,376.37,VWS V14.01,2013-10-09 14:29:00,
2013-10-09 10:31:00,58.7,39.6,30.27,NE,50,1.0,2.5,49,0.00,,,0.00,380.77,VWS V14.01,2013-10-09 14:31:00,
2013-10-09 10:33:00,59.2,39.4,30.26,East,101,2.5,3.4,48,0.00,,,0.00,386.33,VWS V14.01,2013-10-09 14:33:00,
2013-10-09 10:34:00,59.9,39.9,30.27,ESE,122,3.2,3.2,48,0.00,,,0.00,388.40,VWS V14.01,2013-10-09 14:34:00,
2013-10-09 10:36:00,56.6,34.8,30.27,East,100,6.3,6.3,44,0.00,,,0.00,390.78,VWS V14.01,2013-10-09 14:36:00,
2013-10-09 10:38:00,58.1,37.9,30.27,ESE,102,4.5,4.5,47,0.00,,,0.00,397.62,VWS V14.01,2013-10-09 14:38:00,
2013-10-09 10:39:00,57.7,37.3,30.27,East,100,3.5,4.5,46,0.00,,,0.00,397.86,VWS V14.01,2013-10-09 14:39:00,
2013-10-09 10:41:00,57.8,36.6,30.27,ENE,72,2.7,4.2,45,0.00,,,0.00,403.48,VWS V14.01,2013-10-09 14:41:00,
2013-10-09 10:42:00,58.8,37.7,30.28,ENE,59,3.5,3.5,45,0.00,,,0.00,405.92,VWS V14.01,2013-10-09 14:42:00,
2013-10-09 10:44:00,58.8,37.7,30.27,NE,51,3.2,5.9,45,0.00,,,0.00,408.85,VWS V14.01,2013-10-09 14:44:00,
2013-10-09 10:45:00,57.7,35.7,30.26,ENE,59,4.7,4.7,44,0.00,,,0.00,412.52,VWS V14.01,2013-10-09 14:45:00,
2013-10-09 10:47:00,59.2,37.5,30.27,NNE,33,4.0,4.0,44,0.00,,,0.00,415.45,VWS V14.01,2013-10-09 14:47:00,
2013-10-09 10:48:00,60.9,38.6,30.27,ENE,78,2.8,2.8,44,0.00,,,0.00,416.85,VWS V14.01,2013-10-09 14:48:00,
2013-10-09 10:50:00,58.6,33.9,30.27,East,90,5.7,5.7,39,0.00,,,0.00,422.28,VWS V14.01,2013-10-09 14:50:00,
2013-10-09 10:51:00,59.7,35.9,30.27,ESE,121,3.9,4.2,41,0.00,,,0.00,424.97,VWS V14.01,2013-10-09 14:51:00,
2013-10-09 10:52:00,59.0,35.7,30.27,ESE,111,4.9,4.9,41,0.00,,,0.00,427.17,VWS V14.01,2013-10-09 14:52:00,
2013-10-09 10:53:00,60.1,36.3,30.27,ESE,120,3.4,3.4,41,0.00,,,0.00,430.46,VWS V14.01,2013-10-09 14:53:00,
2013-10-09 10:55:00,60.2,35.8,30.26,SE,146,4.9,4.9,40,0.00,,,0.00,434.49,VWS V14.01,2013-10-09 14:55:00,
2013-10-09 10:56:00,60.5,36.5,30.27,SE,139,2.5,4.9,41,0.00,,,0.00,435.35,VWS V14.01,2013-10-09 14:56:00,
2013-10-09 10:57:00,60.5,36.5,30.27,SE,139,2.5,4.9,41,0.00,,,0.00,435.35,VWS V14.01,2013-10-09 14:57:00,
2013-10-09 10:58:00,59.1,35.3,30.27,ENE,71,3.5,4.4,41,0.00,,,0.00,437.91,VWS V14.01,2013-10-09 14:58:00,
2013-10-09 11:00:00,59.2,34.9,30.27,ENE,64,4.5,5.1,40,0.00,,,0.00,443.96,VWS V14.01,2013-10-09 15:00:00,
2013-10-09 11:02:00,60.4,35.3,30.27,ESE,113,4.4,4.4,39,0.00,,,0.00,448.66,VWS V14.01,2013-10-09 15:02:00,
2013-10-09 11:03:00,60.4,35.3,30.27,ESE,113,4.4,4.4,39,0.00,,,0.00,448.66,VWS V14.01,2013-10-09 15:03:00,
2013-10-09 11:04:00,62.0,36.5,30.26,ESE,111,5.4,5.4,39,0.00,,,0.00,451.34,VWS V14.01,2013-10-09 15:04:00,
2013-10-09 11:05:00,59.7,33.8,30.26,East,83,5.7,5.7,38,0.00,,,0.00,454.27,VWS V14.01,2013-10-09 15:05:00,
2013-10-09 11:08:00,60.3,34.5,30.28,ENE,63,3.7,3.7,38,0.00,,,0.00,458.91,VWS V14.01,2013-10-09 15:08:00,
2013-10-09 11:10:00,59.4,33.5,30.26,ENE,78,5.1,5.1,38,0.00,,,0.00,464.41,VWS V14.01,2013-10-09 15:10:00,
2013-10-09 11:11:00,60.1,33.2,30.26,NE,50,3.5,6.1,36,0.00,,,0.00,463.98,VWS V14.01,2013-10-09 15:11:00,
2013-10-09 11:13:00,62.2,35.1,30.26,NE,54,3.2,3.7,36,0.00,,,0.00,470.02,VWS V14.01,2013-10-09 15:13:00,
2013-10-09 11:15:00,61.1,33.9,30.27,ESE,102,3.2,3.2,36,0.00,,,0.00,471.12,VWS V14.01,2013-10-09 15:15:00,
2013-10-09 11:16:00,62.8,35.7,30.27,East,82,1.0,5.4,36,0.00,,,0.00,470.76,VWS V14.01,2013-10-09 15:16:00,
2013-10-09 11:19:00,62.3,33.1,30.27,South,190,3.0,3.9,33,0.00,,,0.00,478.94,VWS V14.01,2013-10-09 15:19:00,
2013-10-09 11:21:00,63.7,32.9,30.27,SSE,147,3.4,3.5,32,0.00,,,0.00,481.14,VWS V14.01,2013-10-09 15:21:00,
2013-10-09 11:22:00,62.6,32.0,30.27,SE,140,3.7,5.4,32,0.00,,,0.00,483.33,VWS V14.01,2013-10-09 15:22:00,
2013-10-09 11:23:00,64.2,34.3,30.27,SSE,152,2.8,3.7,33,0.00,,,0.00,486.02,VWS V14.01,2013-10-09 15:23:00,
2013-10-09 11:24:00,62.6,31.8,30.26,SSE,148,6.1,6.1,31,0.00,,,0.00,488.22,VWS V14.01,2013-10-09 15:24:00,
2013-10-09 11:26:00,61.1,29.8,30.26,ESE,118,4.7,6.9,30,0.00,,,0.00,490.35,VWS V14.01,2013-10-09 15:26:00,
2013-10-09 11:27:00,61.8,30.6,30.27,South,173,4.0,4.7,31,0.00,,,0.00,491.88,VWS V14.01,2013-10-09 15:27:00,
2013-10-09 11:31:00,62.8,31.6,30.26,SE,144,1.5,3.7,31,0.00,,,0.00,496.28,VWS V14.01,2013-10-09 15:31:00,
2013-10-09 11:32:00,62.0,29.6,30.25,ESE,114,4.4,4.4,29,0.00,,,0.00,498.47,VWS V14.01,2013-10-09 15:32:00,
2013-10-09 11:33:00,63.3,31.8,30.26,SE,144,3.9,5.2,31,0.00,,,0.00,502.56,VWS V14.01,2013-10-09 15:33:00,
2013-10-09 11:36:00,61.6,29.8,30.26,East,97,2.3,2.3,30,0.00,,,0.00,506.29,VWS V14.01,2013-10-09 15:36:00,
2013-10-09 11:37:00,63.1,31.6,30.26,SSE,154,3.9,3.9,31,0.00,,,0.00,508.79,VWS V14.01,2013-10-09 15:37:00,
2013-10-09 11:38:00,64.2,32.2,30.26,East,82,0.0,3.9,30,0.00,,,0.00,513.25,VWS V14.01,2013-10-09 15:38:00,
2013-10-09 11:41:00,63.3,30.2,30.26,SE,143,4.7,5.6,29,0.00,,,0.00,517.28,VWS V14.01,2013-10-09 15:41:00,
2013-10-09 11:43:00,63.5,29.8,30.26,SE,127,3.9,3.9,28,0.00,,,0.00,517.77,VWS V14.01,2013-10-09 15:43:00,
2013-10-09 11:44:00,61.4,29.1,30.26,SSW,197,7.5,7.5,29,0.00,,,0.00,522.34,VWS V14.01,2013-10-09 15:44:00,
2013-10-09 11:45:00,61.4,29.1,30.26,SSW,197,7.5,7.5,29,0.00,,,0.00,522.34,VWS V14.01,2013-10-09 15:45:00,
2013-10-09 11:48:00,62.4,29.3,30.26,SSW,192,6.6,6.6,28,0.00,,,0.00,525.34,VWS V14.01,2013-10-09 15:48:00,
2013-10-09 11:49:00,62.1,28.6,30.25,SE,133,6.8,8.1,28,0.00,,,0.00,527.29,VWS V14.01,2013-10-09 15:49:00,
2013-10-09 11:50:00,64.3,31.3,30.25,ESE,114,5.6,6.8,29,0.00,,,0.00,527.29,VWS V14.01,2013-10-09 15:50:00,
2013-10-09 11:55:00,64.1,29.2,30.26,SSE,147,5.2,5.7,27,0.00,,,0.00,536.81,VWS V14.01,2013-10-09 15:55:00,
2013-10-09 11:56:00,62.7,26.8,30.25,SE,136,6.3,6.3,25,0.00,,,0.00,537.49,VWS V14.01,2013-10-09 15:56:00,
2013-10-09 11:57:00,62.7,27.8,30.27,East,93,5.2,6.3,27,0.00,,,0.00,539.50,VWS V14.01,2013-10-09 15:57:00,
2013-10-09 12:00:00,63.2,27.7,30.25,East,84,7.3,7.3,26,0.00,,,0.00,539.74,VWS V14.01,2013-10-09 16:00:00,
2013-10-09 12:01:00,63.2,27.7,30.25,East,84,7.3,7.3,26,0.00,,,0.00,539.74,VWS V14.01,2013-10-09 16:01:00,
2013-10-09 12:02:00,63.7,28.0,30.24,East,97,4.4,4.4,26,0.00,,,0.00,544.38,VWS V14.01,2013-10-09 16:02:00,
2013-10-09 12:04:00,65.4,29.8,30.24,East,101,2.8,8.0,26,0.00,,,0.00,547.80,VWS V14.01,2013-10-09 16:04:00,
2013-10-09 12:06:00,63.8,27.9,30.25,SE,133,5.1,6.4,26,0.00,,,0.00,551.59,VWS V14.01,2013-10-09 16:06:00,
2013-10-09 12:07:00,64.1,28.2,30.25,ESE,111,5.4,5.4,26,0.00,,,0.00,463.25,VWS V14.01,2013-10-09 16:07:00,
2013-10-09 12:08:00,64.0,26.4,30.25,SE,141,8.5,8.5,24,0.00,,,0.00,67.89,VWS V14.01,2013-10-09 16:08:00,
2013-10-09 12:09:00,64.9,28.0,30.25,SSE,161,6.3,8.5,25,0.00,,,0.00,38.34,VWS V14.01,2013-10-09 16:09:00,
2013-10-09 12:13:00,64.4,23.4,30.24,SE,141,6.8,9.2,21,0.00,,,0.00,38.34,VWS V14.01,2013-10-09 16:13:00,
2013-10-09 12:14:00,63.8,26.3,30.25,SE,130,7.1,7.1,24,0.00,,,0.00,38.40,VWS V14.01,2013-10-09 16:14:00,
2013-10-09 12:15:00,64.6,25.0,30.24,ESE,105,5.7,7.1,22,0.00,,,0.00,38.16,VWS V14.01,2013-10-09 16:15:00,
2013-10-09 12:16:00,66.2,30.2,30.25,East,91,4.4,7.6,26,0.00,,,0.00,38.89,VWS V14.01,2013-10-09 16:16:00,
2013-10-09 12:18:00,64.2,27.8,30.25,SE,133,4.0,6.6,25,0.00,,,0.00,38.64,VWS V14.01,2013-10-09 16:18:00,
2013-10-09 12:19:00,64.8,27.6,30.25,SSE,167,8.1,8.1,24,0.00,,,0.00,38.89,VWS V14.01,2013-10-09 16:19:00,
2013-10-09 12:20:00,64.0,27.4,30.25,South,171,7.5,8.1,25,0.00,,,0.00,39.19,VWS V14.01,2013-10-09 16:20:00,
2013-10-09 12:21:00,63.8,27.6,30.24,South,174,6.3,7.5,25,0.00,,,0.00,38.89,VWS V14.01,2013-10-09 16:21:00,
2013-10-09 12:23:00,64.4,28.7,30.24,South,182,5.2,6.3,26,0.00,,,0.00,455.37,VWS V14.01,2013-10-09 16:23:00,
2013-10-09 12:25:00,66.8,29.1,30.24,SSE,154,4.5,4.5,24,0.00,,,0.00,569.29,VWS V14.01,2013-10-09 16:25:00,
2013-10-09 12:26:00,65.3,26.7,30.25,SE,124,5.1,5.1,23,0.00,,,0.00,571.98,VWS V14.01,2013-10-09 16:26:00,
2013-10-09 12:29:00,65.4,27.8,30.25,ESE,119,6.1,7.5,24,0.00,,,0.00,575.15,VWS V14.01,2013-10-09 16:29:00,
2013-10-09 12:30:00,65.1,26.4,30.25,SE,143,7.3,7.3,23,0.00,,,0.00,564.16,VWS V14.01,2013-10-09 16:30:00,
2013-10-09 12:31:00,65.1,26.4,30.25,SE,143,7.3,7.3,23,0.00,,,0.00,564.16,VWS V14.01,2013-10-09 16:31:00,
2013-10-09 12:34:00,64.7,27.7,30.25,SSE,161,2.5,5.4,25,0.00,,,0.00,578.57,VWS V14.01,2013-10-09 16:34:00,
2013-10-09 12:36:00,66.8,29.4,30.25,East,93,3.0,7.6,25,0.00,,,0.00,578.82,VWS V14.01,2013-10-09 16:36:00,
2013-10-09 12:37:00,66.8,29.6,30.25,SE,142,5.6,5.6,25,0.00,,,0.00,581.01,VWS V14.01,2013-10-09 16:37:00,
2013-10-09 12:39:00,64.0,26.3,30.25,ESE,109,8.3,8.3,24,0.00,,,0.00,581.62,VWS V14.01,2013-10-09 16:39:00,
2013-10-09 12:40:00,65.4,28.4,30.25,ESE,119,7.1,8.3,25,0.00,,,0.00,580.65,VWS V14.01,2013-10-09 16:40:00,
2013-10-09 12:42:00,65.1,27.3,30.25,ESE,109,5.6,6.3,24,0.00,,,0.00,584.07,VWS V14.01,2013-10-09 16:42:00,
2013-10-09 12:43:00,65.6,25.5,30.24,ESE,112,10.4,10.4,22,0.00,,,0.00,496.03,VWS V14.01,2013-10-09 16:43:00,
2013-10-09 12:45:00,66.7,26.5,30.25,East,101,5.2,5.2,22,0.00,,,0.00,578.57,VWS V14.01,2013-10-09 16:45:00,
2013-10-09 12:47:00,66.4,26.9,30.25,South,191,8.7,8.7,22,0.00,,,0.00,585.90,VWS V14.01,2013-10-09 16:47:00,
2013-10-09 12:48:00,66.4,26.9,30.25,South,191,8.7,8.7,22,0.00,,,0.00,585.90,VWS V14.01,2013-10-09 16:48:00,
2013-10-09 12:50:00,67.5,28.0,30.24,ESE,121,6.4,6.4,23,0.00,,,0.00,585.59,VWS V14.01,2013-10-09 16:50:00,
2013-10-09 12:51:00,66.9,27.3,30.24,SSE,167,8.7,8.7,22,0.00,,,0.00,588.22,VWS V14.01,2013-10-09 16:51:00,
2013-10-09 12:52:00,65.0,26.8,30.24,South,176,7.8,7.8,23,0.00,,,0.00,588.03,VWS V14.01,2013-10-09 16:52:00,
2013-10-09 12:53:00,66.1,27.2,30.24,SE,142,8.7,8.7,23,0.00,,,0.00,588.10,VWS V14.01,2013-10-09 16:53:00,
2013-10-09 12:56:00,66.7,28.4,30.25,South,173,6.1,6.1,24,0.00,,,0.00,588.65,VWS V14.01,2013-10-09 16:56:00,
2013-10-09 12:57:00,66.1,27.9,30.25,South,170,8.8,8.8,24,0.00,,,0.00,592.92,VWS V14.01,2013-10-09 16:57:00,
2013-10-09 12:58:00,66.2,27.7,30.24,SE,130,5.6,8.8,23,0.00,,,0.00,593.96,VWS V14.01,2013-10-09 16:58:00,
2013-10-09 13:01:00,66.9,26.4,30.24,SSE,148,6.4,6.4,22,0.00,,,0.00,528.02,VWS V14.01,2013-10-09 17:01:00,
2013-10-09 13:02:00,65.4,24.9,30.25,SSE,158,7.3,7.3,21,0.00,,,0.00,593.22,VWS V14.01,2013-10-09 17:02:00,
2013-10-09 13:03:00,67.4,27.6,30.24,SE,126,4.0,7.3,22,0.00,,,0.00,591.39,VWS V14.01,2013-10-09 17:03:00,
2013-10-09 13:05:00,66.3,25.8,30.24,East,90,5.2,7.6,22,0.00,,,0.00,593.22,VWS V14.01,2013-10-09 17:05:00,
2013-10-09 13:06:00,66.8,25.9,30.25,East,91,4.4,7.6,21,0.00,,,0.00,593.47,VWS V14.01,2013-10-09 17:06:00,
2013-10-09 13:08:00,68.0,28.3,30.24,SSE,148,3.2,7.6,22,0.00,,,0.00,595.67,VWS V14.01,2013-10-09 17:08:00,
2013-10-09 13:09:00,68.3,20.1,30.23,ESE,111,4.7,7.6,16,0.00,,,0.00,596.95,VWS V14.01,2013-10-09 17:09:00,
2013-10-09 13:11:00,67.2,24.8,30.23,East,79,5.2,7.6,20,0.00,,,0.00,600.55,VWS V14.01,2013-10-09 17:11:00,
2013-10-09 13:12:00,67.7,21.7,30.23,East,85,9.9,9.9,17,0.00,,,0.00,597.62,VWS V14.01,2013-10-09 17:12:00,
2013-10-09 13:13:00,67.6,24.9,30.23,SSE,155,5.9,9.9,20,0.00,,,0.00,598.11,VWS V14.01,2013-10-09 17:13:00,
2013-10-09 13:14:00,67.6,24.9,30.23,SSE,155,5.9,9.9,20,0.00,,,0.00,598.11,VWS V14.01,2013-10-09 17:14:00,
2013-10-09 13:15:00,67.4,25.5,30.23,East,99,7.6,9.9,21,0.00,,,0.00,598.72,VWS V14.01,2013-10-09 17:15:00,
2013-10-09 13:17:00,66.7,24.1,30.22,NE,51,9.0,9.9,20,0.00,,,0.00,598.11,VWS V14.01,2013-10-09 17:17:00,
2013-10-09 13:18:00,65.8,24.4,30.23,NE,46,5.7,9.9,21,0.00,,,0.00,597.86,VWS V14.01,2013-10-09 17:18:00,
2013-10-09 13:19:00,67.0,25.0,30.23,East,101,7.1,9.9,20,0.00,,,0.00,598.05,VWS V14.01,2013-10-09 17:19:00,
2013-10-09 13:21:00,67.0,24.8,30.22,NE,53,6.4,9.9,20,0.00,,,0.00,600.55,VWS V14.01,2013-10-09 17:21:00,
2013-10-09 13:23:00,67.6,25.5,30.22,NNE,20,6.9,9.9,20,0.00,,,0.00,600.55,VWS V14.01,2013-10-09 17:23:00,
2013-10-09 13:26:00,66.6,24.7,30.22,SE,126,8.3,9.9,20,0.00,,,0.00,512.64,VWS V14.01,2013-10-09 17:26:00,
2013-10-09 13:27:00,66.4,24.1,30.23,East,87,9.7,9.9,20,0.00,,,0.00,591.03,VWS V14.01,2013-10-09 17:27:00,
2013-10-09 13:29:00,68.0,25.6,30.23,South,185,6.6,9.9,20,0.00,,,0.00,601.16,VWS V14.01,2013-10-09 17:29:00,
2013-10-09 13:30:00,68.1,25.3,30.23,SE,145,7.8,9.9,20,0.00,,,0.00,600.06,VWS V14.01,2013-10-09 17:30:00,
2013-10-09 13:31:00,67.5,23.9,30.23,SE,134,7.1,9.9,19,0.00,,,0.00,598.11,VWS V14.01,2013-10-09 17:31:00,
2013-10-09 13:32:00,69.0,26.9,30.23,East,81,7.3,9.9,21,0.00,,,0.00,598.84,VWS V14.01,2013-10-09 17:32:00,
2013-10-09 13:33:00,67.2,24.9,30.22,ESE,109,6.6,9.9,20,0.00,,,0.00,600.55,VWS V14.01,2013-10-09 17:33:00,
2013-10-09 13:34:00,67.2,25.0,30.22,ENE,75,4.5,9.9,20,0.00,,,0.00,600.55,VWS V14.01,2013-10-09 17:34:00,
2013-10-09 13:35:00,69.2,28.0,30.21,ENE,73,5.6,9.9,21,0.00,,,0.00,602.26,VWS V14.01,2013-10-09 17:35:00,
2013-10-09 13:38:00,67.0,23.9,30.22,NE,38,6.6,10.5,19,0.00,,,0.00,599.82,VWS V14.01,2013-10-09 17:38:00,
2013-10-09 13:39:00,67.0,24.6,30.22,ENE,75,3.0,10.5,20,0.00,,,0.00,598.35,VWS V14.01,2013-10-09 17:39:00,
2013-10-09 13:41:00,69.5,25.4,30.22,SSE,147,4.4,10.5,19,0.00,,,0.00,601.16,VWS V14.01,2013-10-09 17:41:00,
2013-10-09 13:42:00,67.1,22.1,30.22,SE,125,8.7,10.5,18,0.00,,,0.00,600.55,VWS V14.01,2013-10-09 17:42:00,
2013-10-09 13:43:00,68.2,23.4,30.22,ESE,116,8.1,10.5,18,0.00,,,0.00,598.11,VWS V14.01,2013-10-09 17:43:00,
2013-10-09 13:44:00,68.2,23.4,30.22,ESE,116,8.1,10.5,18,0.00,,,0.00,598.11,VWS V14.01,2013-10-09 17:44:00,
2013-10-09 13:45:00,67.9,22.0,30.22,SE,144,8.0,10.5,17,0.00,,,0.00,598.11,VWS V14.01,2013-10-09 17:45:00,
2013-10-09 13:46:00,67.9,21.5,30.22,ESE,117,5.4,10.5,17,0.00,,,0.00,599.76,VWS V14.01,2013-10-09 17:46:00,
2013-10-09 13:50:00,67.6,22.9,30.21,ENE,57,7.8,10.5,18,0.00,,,0.00,598.11,VWS V14.01,2013-10-09 17:50:00,
2013-10-09 13:51:00,66.7,22.2,30.21,ESE,105,6.1,10.5,18,0.00,,,0.00,596.15,VWS V14.01,2013-10-09 17:51:00,
2013-10-09 13:52:00,67.2,20.9,30.21,ESE,114,6.8,10.5,17,0.00,,,0.00,595.91,VWS V14.01,2013-10-09 17:52:00,
2013-10-09 13:53:00,67.7,22.9,30.21,ESE,121,6.8,10.5,18,0.00,,,0.00,597.25,VWS V14.01,2013-10-09 17:53:00,
2013-10-09 13:55:00,67.6,22.8,30.22,East,94,8.8,10.5,18,0.00,,,0.00,594.20,VWS V14.01,2013-10-09 17:55:00,
2013-10-09 13:56:00,67.2,21.6,30.21,ESE,106,7.8,10.5,17,0.00,,,0.00,591.45,VWS V14.01,2013-10-09 17:56:00,
2013-10-09 13:58:00,68.3,24.5,30.21,South,175,4.2,10.5,19,0.00,,,0.00,590.78,VWS V14.01,2013-10-09 17:58:00,
2013-10-09 13:59:00,68.6,23.8,30.22,East,98,3.7,10.5,18,0.00,,,0.00,590.78,VWS V14.01,2013-10-09 17:59:00,
2013-10-09 14:01:00,68.0,23.1,30.21,ESE,120,4.2,4.2,18,0.00,,,0.00,585.23,VWS V14.01,2013-10-09 18:01:00,
2013-10-09 14:02:00,69.3,21.9,30.21,NE,36,1.6,4.2,16,0.00,,,0.00,588.95,VWS V14.01,2013-10-09 18:02:00,
2013-10-09 14:03:00,68.3,22.6,30.21,ENE,61,8.8,8.8,18,0.00,,,0.00,586.75,VWS V14.01,2013-10-09 18:03:00,
2013-10-09 14:04:00,68.3,22.6,30.21,ENE,61,8.8,8.8,18,0.00,,,0.00,586.75,VWS V14.01,2013-10-09 18:04:00,
2013-10-09 14:06:00,68.3,22.6,30.21,ENE,61,8.8,8.8,18,0.00,,,0.00,586.75,VWS V14.01,2013-10-09 18:06:00,
2013-10-09 14:07:00,67.1,20.7,30.21,ENE,68,4.0,8.8,17,0.00,,,0.00,588.10,VWS V14.01,2013-10-09 18:07:00,
2013-10-09 14:09:00,70.0,24.1,30.21,SSE,150,3.7,8.8,18,0.00,,,0.00,585.90,VWS V14.01,2013-10-09 18:09:00,
2013-10-09 14:10:00,68.5,20.0,30.20,ESE,114,8.0,8.8,16,0.00,,,0.00,585.90,VWS V14.01,2013-10-09 18:10:00,
2013-10-09 14:14:00,68.0,21.1,30.20,SSE,153,5.7,9.0,17,0.00,,,0.00,583.46,VWS V14.01,2013-10-09 18:14:00,
2013-10-09 14:15:00,69.5,22.5,30.21,NE,56,5.2,9.0,17,0.00,,,0.00,581.75,VWS V14.01,2013-10-09 18:15:00,
2013-10-09 14:16:00,68.8,21.8,30.21,East,82,4.0,9.0,17,0.00,,,0.00,578.27,VWS V14.01,2013-10-09 18:16:00,
2013-10-09 14:17:00,69.5,20.7,30.20,East,97,9.2,9.2,16,0.00,,,0.00,581.32,VWS V14.01,2013-10-09 18:17:00,
2013-10-09 14:19:00,67.7,20.0,30.20,ENE,65,8.8,9.7,16,0.00,,,0.00,578.27,VWS V14.01,2013-10-09 18:19:00,
2013-10-09 14:21:00,68.2,18.7,30.21,NE,49,6.4,9.7,15,0.00,,,0.00,577.78,VWS V14.01,2013-10-09 18:21:00,
2013-10-09 14:22:00,68.2,18.7,30.21,NE,49,6.4,9.7,15,0.00,,,0.00,577.78,VWS V14.01,2013-10-09 18:22:00,
2013-10-09 14:23:00,69.3,21.0,30.21,East,89,5.9,9.7,16,0.00,,,0.00,578.33,VWS V14.01,2013-10-09 18:23:00,
2013-10-09 14:27:00,68.9,18.2,30.20,ESE,123,6.8,9.7,14,0.00,,,0.00,576.13,VWS V14.01,2013-10-09 18:27:00,
2013-10-09 14:28:00,70.6,21.8,30.20,SE,134,6.3,9.7,16,0.00,,,0.00,573.44,VWS V14.01,2013-10-09 18:28:00,
2013-10-09 14:29:00,69.9,20.6,30.21,ESE,119,3.7,9.7,15,0.00,,,0.00,571.25,VWS V14.01,2013-10-09 18:29:00,
2013-10-09 14:33:00,68.8,19.7,30.19,East,87,11.1,11.1,15,0.00,,,0.00,572.47,VWS V14.01,2013-10-09 18:33:00,
2013-10-09 14:34:00,67.9,17.2,30.19,ENE,69,9.0,11.1,14,0.00,,,0.00,570.51,VWS V14.01,2013-10-09 18:34:00,
2013-10-09 14:35:00,69.3,21.0,30.19,ENE,71,6.3,11.1,16,0.00,,,0.00,568.56,VWS V14.01,2013-10-09 18:35:00,
2013-10-09 14:38:00,70.0,20.8,30.20,SE,136,7.1,11.1,15,0.00,,,0.00,566.36,VWS V14.01,2013-10-09 18:38:00,
2013-10-09 14:39:00,70.0,20.8,30.20,SE,136,7.1,11.1,15,0.00,,,0.00,566.36,VWS V14.01,2013-10-09 18:39:00,
2013-10-09 14:40:00,69.4,20.7,30.20,ESE,105,6.8,11.1,16,0.00,,,0.00,566.36,VWS V14.01,2013-10-09 18:40:00,
2013-10-09 14:41:00,68.4,18.4,30.20,ENE,78,3.2,11.1,15,0.00,,,0.00,561.72,VWS V14.01,2013-10-09 18:41:00,
2013-10-09 14:42:00,69.7,20.5,30.20,ESE,117,5.4,11.1,15,0.00,,,0.00,561.48,VWS V14.01,2013-10-09 18:42:00,
2013-10-09 14:44:00,69.6,19.4,30.19,ESE,109,6.6,11.1,15,0.00,,,0.00,559.34,VWS V14.01,2013-10-09 18:44:00,
2013-10-09 14:45:00,68.6,15.9,30.20,ESE,113,8.7,11.1,13,0.00,,,0.00,556.35,VWS V14.01,2013-10-09 18:45:00,
2013-10-09 14:47:00,70.7,21.8,30.20,SE,136,6.6,11.1,16,0.00,,,0.00,551.59,VWS V14.01,2013-10-09 18:47:00,
2013-10-09 14:48:00,68.9,18.9,30.19,ESE,109,9.2,11.1,15,0.00,,,0.00,554.15,VWS V14.01,2013-10-09 18:48:00,
2013-10-09 14:49:00,68.6,20.2,30.19,ENE,57,10.4,11.1,16,0.00,,,0.00,554.15,VWS V14.01,2013-10-09 18:49:00,
2013-10-09 14:50:00,68.3,18.3,30.19,ESE,110,8.0,11.1,15,0.00,,,0.00,551.71,VWS V14.01,2013-10-09 18:50:00,
2013-10-09 14:51:00,70.5,21.9,30.20,ESE,122,4.4,11.1,16,0.00,,,0.00,546.83,VWS V14.01,2013-10-09 18:51:00,
2013-10-09 14:53:00,69.5,21.6,30.19,ESE,114,8.3,11.1,16,0.00,,,0.00,547.07,VWS V14.01,2013-10-09 18:53:00,
2013-10-09 14:54:00,70.2,23.5,30.19,NNE,33,8.3,11.1,17,0.00,,,0.00,546.83,VWS V14.01,2013-10-09 18:54:00,
2013-10-09 14:56:00,70.6,22.6,30.18,ENE,71,8.1,11.1,16,0.00,,,0.00,542.86,VWS V14.01,2013-10-09 18:56:00,
2013-10-09 14:57:00,67.2,18.5,30.18,ENE,78,11.4,11.4,15,0.00,,,0.00,543.90,VWS V14.01,2013-10-09 18:57:00,
2013-10-09 14:59:00,69.8,20.1,30.18,ENE,78,4.5,11.4,15,0.00,,,0.00,538.52,VWS V14.01,2013-10-09 18:59:00,
2013-10-09 15:01:00,70.0,21.0,30.19,NE,36,6.3,11.4,15,0.00,,,0.00,537.06,VWS V14.01,2013-10-09 19:01:00,
2013-10-09 15:02:00,70.1,21.2,30.18,ENE,71,6.1,8.8,16,0.00,,,0.00,534.62,VWS V14.01,2013-10-09 19:02:00,
2013-10-09 15:03:00,69.3,19.1,30.18,ENE,59,8.1,8.1,15,0.00,,,0.00,535.59,VWS V14.01,2013-10-09 19:03:00,
2013-10-09 15:04:00,68.0,16.8,30.18,East,83,9.3,9.3,14,0.00,,,0.00,536.02,VWS V14.01,2013-10-09 19:04:00,
2013-10-09 15:05:00,70.2,20.5,30.19,East,88,8.5,8.5,15,0.00,,,0.00,532.17,VWS V14.01,2013-10-09 19:05:00,
2013-10-09 15:06:00,69.4,19.5,30.19,ESE,120,10.0,10.0,15,0.00,,,0.00,530.46,VWS V14.01,2013-10-09 19:06:00,
2013-10-09 15:09:00,69.5,21.2,30.18,East,82,7.3,11.2,16,0.00,,,0.00,527.05,VWS V14.01,2013-10-09 19:09:00,
2013-10-09 15:10:00,68.4,20.4,30.18,East,89,9.9,9.9,16,0.00,,,0.00,526.98,VWS V14.01,2013-10-09 19:10:00,
2013-10-09 15:11:00,70.4,22.3,30.19,ENE,78,7.6,7.6,16,0.00,,,0.00,526.07,VWS V14.01,2013-10-09 19:11:00,
2013-10-09 15:12:00,70.8,22.5,30.19,NNE,32,3.9,3.9,16,0.00,,,0.00,523.63,VWS V14.01,2013-10-09 19:12:00,
2013-10-09 15:14:00,70.6,21.4,30.18,ENE,62,5.6,6.8,15,0.00,,,0.00,520.21,VWS V14.01,2013-10-09 19:14:00,
2013-10-09 15:15:00,70.2,20.5,30.17,East,86,6.8,6.8,15,0.00,,,0.00,519.41,VWS V14.01,2013-10-09 19:15:00,
2013-10-09 15:16:00,68.9,18.9,30.17,ENE,67,9.0,9.0,15,0.00,,,0.00,517.52,VWS V14.01,2013-10-09 19:16:00,
2013-10-09 15:17:00,70.3,19.4,30.18,East,90,8.7,8.7,14,0.00,,,0.00,515.08,VWS V14.01,2013-10-09 19:17:00,
2013-10-09 15:19:00,70.1,17.6,30.19,ESE,112,9.5,9.5,13,0.00,,,0.00,512.39,VWS V14.01,2013-10-09 19:19:00,
2013-10-09 15:20:00,69.7,16.4,30.18,ESE,103,7.8,9.5,13,0.00,,,0.00,510.20,VWS V14.01,2013-10-09 19:20:00,
2013-10-09 15:22:00,68.3,18.4,30.18,East,92,9.2,9.2,15,0.00,,,0.00,507.75,VWS V14.01,2013-10-09 19:22:00,
2013-10-09 15:23:00,71.0,23.1,30.18,East,98,4.5,9.2,16,0.00,,,0.00,507.75,VWS V14.01,2013-10-09 19:23:00,
2013-10-09 15:24:00,69.4,17.6,30.18,ESE,106,6.1,8.1,14,0.00,,,0.00,505.31,VWS V14.01,2013-10-09 19:24:00,
2013-10-09 15:25:00,71.5,21.0,30.17,ESE,121,5.1,6.1,15,0.00,,,0.00,500.43,VWS V14.01,2013-10-09 19:25:00,
2013-10-09 15:27:00,69.9,16.7,30.18,ENE,68,8.3,8.7,13,0.00,,,0.00,499.57,VWS V14.01,2013-10-09 19:27:00,
2013-10-09 15:28:00,69.1,17.1,30.18,ENE,70,9.0,9.0,14,0.00,,,0.00,499.45,VWS V14.01,2013-10-09 19:28:00,
2013-10-09 15:29:00,70.9,21.0,30.18,ESE,118,4.2,5.4,15,0.00,,,0.00,496.34,VWS V14.01,2013-10-09 19:29:00,
2013-10-09 15:31:00,68.8,14.8,30.18,ENE,75,8.1,8.1,12,0.00,,,0.00,493.35,VWS V14.01,2013-10-09 19:31:00,
2013-10-09 15:32:00,70.0,15.3,30.17,ESE,103,9.0,9.0,12,0.00,,,0.00,492.37,VWS V14.01,2013-10-09 19:32:00,
2013-10-09 15:34:00,70.7,15.8,30.17,SSE,150,6.9,6.9,12,0.00,,,0.00,490.11,VWS V14.01,2013-10-09 19:34:00,
2013-10-09 15:35:00,71.1,15.4,30.17,SE,142,5.2,6.9,12,0.00,,,0.00,490.17,VWS V14.01,2013-10-09 19:35:00,
2013-10-09 15:36:00,71.0,18.0,30.17,SE,130,5.7,5.7,13,0.00,,,0.00,486.26,VWS V14.01,2013-10-09 19:36:00,
2013-10-09 15:38:00,71.1,15.5,30.17,SSW,202,6.1,13.3,12,0.00,,,0.00,483.33,VWS V14.01,2013-10-09 19:38:00,
2013-10-09 15:40:00,71.2,19.0,30.18,SE,141,6.8,6.8,14,0.00,,,0.00,481.14,VWS V14.01,2013-10-09 19:40:00,
2013-10-09 15:44:00,72.1,19.9,30.17,ESE,111,3.7,7.1,14,0.00,,,0.00,471.12,VWS V14.01,2013-10-09 19:44:00,
2013-10-09 15:45:00,70.8,15.7,30.17,East,83,5.4,7.5,12,0.00,,,0.00,468.62,VWS V14.01,2013-10-09 19:45:00,
2013-10-09 15:46:00,69.9,17.7,30.17,ESE,121,6.8,6.8,13,0.00,,,0.00,466.97,VWS V14.01,2013-10-09 19:46:00,
2013-10-09 15:47:00,71.3,21.2,30.16,ENE,67,3.5,6.8,15,0.00,,,0.00,464.77,VWS V14.01,2013-10-09 19:47:00,
2013-10-09 15:49:00,71.6,19.5,30.17,North,351,3.0,6.3,14,0.00,,,0.00,461.60,VWS V14.01,2013-10-09 19:49:00,
2013-10-09 15:51:00,70.3,17.1,30.17,SE,129,9.9,9.9,13,0.00,,,0.00,458.91,VWS V14.01,2013-10-09 19:51:00,
2013-10-09 15:52:00,70.2,14.0,30.17,SE,144,8.1,11.7,11,0.00,,,0.00,456.23,VWS V14.01,2013-10-09 19:52:00,
2013-10-09 15:53:00,71.2,14.0,30.17,SSE,150,3.9,11.7,11,0.00,,,0.00,453.72,VWS V14.01,2013-10-09 19:53:00,
2013-10-09 15:54:00,72.2,17.4,30.17,South,174,5.1,7.1,12,0.00,,,0.00,455.19,VWS V14.01,2013-10-09 19:54:00,
2013-10-09 15:57:00,70.0,10.8,30.17,East,100,4.7,5.2,10,0.00,,,0.00,449.39,VWS V14.01,2013-10-09 19:57:00,
2013-10-09 15:58:00,72.1,14.8,30.16,SE,139,5.2,5.2,11,0.00,,,0.00,448.17,VWS V14.01,2013-10-09 19:58:00,
2013-10-09 16:00:00,70.2,10.7,30.17,SE,140,6.1,8.3,10,0.00,,,0.00,439.99,VWS V14.01,2013-10-09 20:00:00,
2013-10-09 16:02:00,70.5,17.9,30.17,ENE,76,6.6,7.8,13,0.00,,,0.00,437.42,VWS V14.01,2013-10-09 20:02:00,
2013-10-09 16:03:00,70.7,17.4,30.17,East,98,8.3,8.3,13,0.00,,,0.00,436.94,VWS V14.01,2013-10-09 20:03:00,
2013-10-09 16:06:00,70.5,17.1,30.17,ESE,120,9.2,9.2,13,0.00,,,0.00,427.41,VWS V14.01,2013-10-09 20:06:00,
2013-10-09 16:07:00,71.2,16.5,30.16,ESE,115,4.7,9.2,12,0.00,,,0.00,424.73,VWS V14.01,2013-10-09 20:07:00,
2013-10-09 16:08:00,71.5,16.9,30.16,SSE,166,6.4,6.4,12,0.00,,,0.00,424.79,VWS V14.01,2013-10-09 20:08:00,
2013-10-09 16:09:00,70.3,13.1,30.16,East,90,8.7,8.7,11,0.00,,,0.00,422.04,VWS V14.01,2013-10-09 20:09:00,
2013-10-09 16:13:00,70.4,13.4,30.17,East,82,3.4,5.4,11,0.00,,,0.00,411.90,VWS V14.01,2013-10-09 20:13:00,
2013-10-09 16:14:00,71.4,19.1,30.16,NE,54,2.3,3.4,14,0.00,,,0.00,407.39,VWS V14.01,2013-10-09 20:14:00,
2013-10-09 16:17:00,70.1,17.5,30.16,NE,50,10.4,10.4,13,0.00,,,0.00,403.72,VWS V14.01,2013-10-09 20:17:00,
2013-10-09 16:19:00,70.4,13.6,30.16,ESE,120,4.4,6.8,11,0.00,,,0.00,400.79,VWS V14.01,2013-10-09 20:19:00,
2013-10-09 16:20:00,70.1,14.2,30.16,ENE,61,8.8,8.8,12,0.00,,,0.00,399.82,VWS V14.01,2013-10-09 20:20:00,
2013-10-09 16:21:00,71.2,17.2,30.17,NE,50,4.7,9.2,13,0.00,,,0.00,395.67,VWS V14.01,2013-10-09 20:21:00,
2013-10-09 16:22:00,71.1,17.7,30.17,South,178,6.3,10.9,13,0.00,,,0.00,391.51,VWS V14.01,2013-10-09 20:22:00,
2013-10-09 16:24:00,69.6,12.7,30.17,SE,134,6.9,6.9,11,0.00,,,0.00,387.97,VWS V14.01,2013-10-09 20:24:00,
2013-10-09 16:25:00,71.3,17.1,30.18,East,90,2.7,8.3,13,0.00,,,0.00,385.17,VWS V14.01,2013-10-09 20:25:00,
2013-10-09 16:27:00,70.6,11.6,30.16,SE,141,6.8,6.8,10,0.00,,,0.00,382.72,VWS V14.01,2013-10-09 20:27:00,
2013-10-09 16:28:00,70.2,15.1,30.16,SE,130,8.8,8.8,12,0.00,,,0.00,378.33,VWS V14.01,2013-10-09 20:28:00,
2013-10-09 16:30:00,70.7,12.1,30.16,SSE,150,4.9,6.8,10,0.00,,,0.00,374.05,VWS V14.01,2013-10-09 20:30:00,
2013-10-09 16:32:00,71.1,12.7,30.16,ESE,114,5.2,5.2,10,0.00,,,0.00,370.27,VWS V14.01,2013-10-09 20:32:00,
2013-10-09 16:33:00,70.0,12.9,30.16,ESE,115,9.3,9.3,11,0.00,,,0.00,369.66,VWS V14.01,2013-10-09 20:33:00,
2013-10-09 16:36:00,70.3,15.6,30.16,East,79,7.8,7.8,12,0.00,,,0.00,361.23,VWS V14.01,2013-10-09 20:36:00,
2013-10-09 16:37:00,70.3,15.9,30.17,ESE,120,6.3,7.8,12,0.00,,,0.00,358.55,VWS V14.01,2013-10-09 20:37:00,
2013-10-09 16:38:00,70.0,16.4,30.16,ENE,77,5.1,7.8,13,0.00,,,0.00,356.35,VWS V14.01,2013-10-09 20:38:00,
2013-10-09 16:41:00,70.9,13.1,30.16,ENE,59,5.1,6.8,11,0.00,,,0.00,349.21,VWS V14.01,2013-10-09 20:41:00,
2013-10-09 16:43:00,70.6,14.0,30.17,ENE,66,8.0,8.0,11,0.00,,,0.00,345.79,VWS V14.01,2013-10-09 20:43:00,
2013-10-09 16:44:00,71.5,16.5,30.16,ESE,116,6.4,6.4,12,0.00,,,0.00,342.43,VWS V14.01,2013-10-09 20:44:00,
2013-10-09 16:47:00,71.8,13.2,30.16,ESE,122,4.7,8.3,10,0.00,,,0.00,335.35,VWS V14.01,2013-10-09 20:47:00,
2013-10-09 16:48:00,70.0,10.4,30.17,SE,139,6.9,6.9,10,0.00,,,0.00,331.93,VWS V14.01,2013-10-09 20:48:00,
2013-10-09 16:49:00,70.3,11.3,30.16,ESE,121,5.1,6.9,10,0.00,,,0.00,329.73,VWS V14.01,2013-10-09 20:49:00,
2013-10-09 16:53:00,70.2,13.5,30.15,SE,128,4.4,6.9,11,0.00,,,0.00,317.28,VWS V14.01,2013-10-09 20:53:00,
2013-10-09 16:54:00,71.1,14.1,30.16,ESE,117,3.0,6.9,11,0.00,,,0.00,317.28,VWS V14.01,2013-10-09 20:54:00,
2013-10-09 16:55:00,71.4,17.0,30.15,East,100,3.2,4.7,12,0.00,,,0.00,313.37,VWS V14.01,2013-10-09 20:55:00,
2013-10-09 16:56:00,70.7,17.0,30.15,ENE,76,3.7,3.7,13,0.00,,,0.00,312.64,VWS V14.01,2013-10-09 20:56:00,
2013-10-09 17:00:00,70.4,17.9,30.16,East,96,5.6,5.6,13,0.00,,,0.00,300.12,VWS V14.01,2013-10-09 21:00:00,
2013-10-09 17:01:00,69.9,16.1,30.16,East,96,5.4,5.4,13,0.00,,,0.00,299.69,VWS V14.01,2013-10-09 21:01:00,
2013-10-09 17:02:00,70.9,20.0,30.16,NNE,33,5.4,5.4,14,0.00,,,0.00,297.25,VWS V14.01,2013-10-09 21:02:00,
2013-10-09 17:03:00,70.6,17.8,30.15,NNE,33,7.1,7.1,13,0.00,,,0.00,292.86,VWS V14.01,2013-10-09 21:03:00,
2013-10-09 17:04:00,69.7,18.6,30.15,ENE,69,7.1,7.1,14,0.00,,,0.00,290.42,VWS V14.01,2013-10-09 21:04:00,
2013-10-09 17:05:00,70.0,18.6,30.15,NE,51,5.2,7.1,14,0.00,,,0.00,287.97,VWS V14.01,2013-10-09 21:05:00,
2013-10-09 17:07:00,70.5,19.2,30.16,SE,145,4.0,4.0,14,0.00,,,0.00,285.04,VWS V14.01,2013-10-09 21:07:00,
2013-10-09 17:09:00,70.1,18.7,30.16,East,96,5.9,5.9,14,0.00,,,0.00,280.40,VWS V14.01,2013-10-09 21:09:00,
2013-10-09 17:10:00,70.5,19.4,30.16,ESE,110,3.4,7.5,14,0.00,,,0.00,270.82,VWS V14.01,2013-10-09 21:10:00,
2013-10-09 17:11:00,69.7,15.7,30.16,ENE,57,8.1,8.1,12,0.00,,,0.00,273.08,VWS V14.01,2013-10-09 21:11:00,
2013-10-09 17:12:00,69.6,16.5,30.16,ESE,112,6.9,8.1,13,0.00,,,0.00,270.88,VWS V14.01,2013-10-09 21:12:00,
2013-10-09 17:13:00,69.8,19.7,30.16,ENE,65,6.3,6.9,15,0.00,,,0.00,268.13,VWS V14.01,2013-10-09 21:13:00,
2013-10-09 17:14:00,69.3,16.8,30.15,ESE,106,6.9,6.9,13,0.00,,,0.00,268.19,VWS V14.01,2013-10-09 21:14:00,
2013-10-09 17:16:00,69.5,15.1,30.16,ESE,114,6.8,6.8,12,0.00,,,0.00,263.06,VWS V14.01,2013-10-09 21:16:00,
2013-10-09 17:18:00,69.8,18.6,30.16,ESE,108,4.4,6.1,14,0.00,,,0.00,256.23,VWS V14.01,2013-10-09 21:18:00,
2013-10-09 17:19:00,69.5,15.2,30.16,ESE,105,4.7,4.7,12,0.00,,,0.00,254.52,VWS V14.01,2013-10-09 21:19:00,
2013-10-09 17:21:00,69.3,16.6,30.16,ENE,71,6.9,6.9,13,0.00,,,0.00,244.63,VWS V14.01,2013-10-09 21:21:00,
2013-10-09 17:22:00,69.8,18.5,30.16,ENE,60,3.9,5.6,14,0.00,,,0.00,246.15,VWS V14.01,2013-10-09 21:22:00,
2013-10-09 17:23:00,69.3,18.5,30.16,ENE,62,4.7,4.7,14,0.00,,,0.00,241.58,VWS V14.01,2013-10-09 21:23:00,
2013-10-09 17:24:00,69.6,16.5,30.16,ENE,73,3.9,3.9,13,0.00,,,0.00,235.71,VWS V14.01,2013-10-09 21:24:00,
2013-10-09 17:27:00,69.6,20.5,30.15,NE,45,7.1,7.1,15,0.00,,,0.00,231.81,VWS V14.01,2013-10-09 21:27:00,
2013-10-09 17:28:00,69.6,18.9,30.15,ENE,71,6.3,7.1,14,0.00,,,0.00,229.12,VWS V14.01,2013-10-09 21:28:00,
2013-10-09 17:29:00,69.4,15.7,30.15,SE,124,6.3,6.3,13,0.00,,,0.00,226.92,VWS V14.01,2013-10-09 21:29:00,
2013-10-09 17:31:00,69.6,19.1,30.16,ESE,102,5.2,5.2,14,0.00,,,0.00,218.13,VWS V14.01,2013-10-09 21:31:00,
2013-10-09 17:33:00,69.2,16.4,30.17,SE,131,8.5,8.5,13,0.00,,,0.00,217.16,VWS V14.01,2013-10-09 21:33:00,
2013-10-09 17:35:00,68.9,17.9,30.16,ENE,73,6.8,6.8,14,0.00,,,0.00,209.40,VWS V14.01,2013-10-09 21:35:00,
2013-10-09 17:36:00,68.9,17.9,30.16,ENE,73,6.8,6.8,14,0.00,,,0.00,209.40,VWS V14.01,2013-10-09 21:36:00,
2013-10-09 17:37:00,69.1,17.5,30.17,SE,136,5.4,6.8,14,0.00,,,0.00,204.95,VWS V14.01,2013-10-09 21:37:00,
2013-10-09 17:40:00,69.3,19.0,30.16,SSE,165,6.3,6.3,15,0.00,,,0.00,197.62,VWS V14.01,2013-10-09 21:40:00,
2013-10-09 17:41:00,69.7,20.1,30.17,East,100,2.0,3.7,15,0.00,,,0.00,193.96,VWS V14.01,2013-10-09 21:41:00,
2013-10-09 17:42:00,68.9,17.6,30.17,East,92,4.2,4.2,14,0.00,,,0.00,192.67,VWS V14.01,2013-10-09 21:42:00,
2013-10-09 17:44:00,69.3,20.2,30.17,ESE,107,3.9,3.9,15,0.00,,,0.00,188.40,VWS V14.01,2013-10-09 21:44:00,
2013-10-09 17:47:00,68.7,17.0,30.17,ESE,120,6.4,6.4,14,0.00,,,0.00,181.14,VWS V14.01,2013-10-09 21:47:00,
2013-10-09 17:49:00,69.0,17.9,30.16,ENE,77,2.5,6.4,14,0.00,,,0.00,174.18,VWS V14.01,2013-10-09 21:49:00,
2013-10-09 17:50:00,68.8,18.7,30.17,East,80,4.4,4.4,15,0.00,,,0.00,168.25,VWS V14.01,2013-10-09 21:50:00,
2013-10-09 17:53:00,69.1,20.0,30.16,SSE,153,2.5,4.7,15,0.00,,,0.00,165.63,VWS V14.01,2013-10-09 21:53:00,
2013-10-09 17:54:00,68.9,18.6,30.16,SE,134,4.7,4.7,15,0.00,,,0.00,163.43,VWS V14.01,2013-10-09 21:54:00,
2013-10-09 17:55:00,68.7,19.4,30.17,ENE,68,3.7,3.7,15,0.00,,,0.00,161.36,VWS V14.01,2013-10-09 21:55:00,
2013-10-09 17:56:00,68.6,19.4,30.16,ESE,110,2.5,3.2,15,0.00,,,0.00,164.90,VWS V14.01,2013-10-09 21:56:00,
2013-10-09 17:59:00,68.2,19.7,30.16,SE,124,5.6,5.6,16,0.00,,,0.00,149.33,VWS V14.01,2013-10-09 21:59:00,
2013-10-09 18:00:00,68.2,19.5,30.16,East,86,3.9,4.5,15,0.00,,,0.00,146.09,VWS V14.01,2013-10-09 22:00:00,
2013-10-09 18:01:00,68.0,13.9,30.16,ENE,67,2.5,3.9,12,0.00,,,0.00,144.14,VWS V14.01,2013-10-09 22:01:00,
2013-10-09 18:02:00,67.9,18.2,30.17,East,98,4.4,8.0,15,0.00,,,0.00,142.67,VWS V14.01,2013-10-09 22:02:00,
2013-10-09 18:04:00,67.9,20.4,30.17,ESE,108,6.6,6.6,16,0.00,,,0.00,137.61,VWS V14.01,2013-10-09 22:04:00,
2013-10-09 18:05:00,67.6,22.3,30.17,ESE,116,3.5,3.5,18,0.00,,,0.00,133.64,VWS V14.01,2013-10-09 22:05:00,
2013-10-09 18:06:00,67.3,23.2,30.17,East,98,3.5,3.5,19,0.00,,,0.00,131.69,VWS V14.01,2013-10-09 22:06:00,
2013-10-09 18:08:00,67.1,25.0,30.16,ESE,106,3.5,3.5,20,0.00,,,0.00,126.98,VWS V14.01,2013-10-09 22:08:00,
2013-10-09 18:09:00,66.8,25.9,30.17,East,83,3.5,6.6,21,0.00,,,0.00,124.11,VWS V14.01,2013-10-09 22:09:00,
2013-10-09 18:11:00,66.8,26.2,30.17,SSE,158,5.6,5.6,22,0.00,,,0.00,119.47,VWS V14.01,2013-10-09 22:11:00,
2013-10-09 18:14:00,66.5,26.8,30.17,SE,130,3.9,4.9,22,0.00,,,0.00,114.59,VWS V14.01,2013-10-09 22:14:00,
2013-10-09 18:15:00,66.4,26.9,30.16,ENE,74,5.9,5.9,22,0.00,,,0.00,109.65,VWS V14.01,2013-10-09 22:15:00,
2013-10-09 18:16:00,66.2,26.4,30.17,ENE,65,5.6,5.9,22,0.00,,,0.00,106.96,VWS V14.01,2013-10-09 22:16:00,
2013-10-09 18:18:00,66.0,25.7,30.17,ENE,70,4.0,5.6,22,0.00,,,0.00,105.07,VWS V14.01,2013-10-09 22:18:00,
2013-10-09 18:19:00,65.9,25.5,30.16,ENE,73,6.9,6.9,22,0.00,,,0.00,101.89,VWS V14.01,2013-10-09 22:19:00,
2013-10-09 18:20:00,65.8,26.1,30.16,NE,47,4.4,6.9,22,0.00,,,0.00,100.18,VWS V14.01,2013-10-09 22:20:00,
2013-10-09 18:22:00,65.8,26.3,30.17,NE,45,5.4,6.4,22,0.00,,,0.00,93.83,VWS V14.01,2013-10-09 22:22:00,
2013-10-09 18:23:00,65.7,26.8,30.17,East,98,4.9,5.4,23,0.00,,,0.00,92.61,VWS V14.01,2013-10-09 22:23:00,
2013-10-09 18:24:00,66.0,26.9,30.17,East,89,5.7,5.7,23,0.00,,,0.00,90.78,VWS V14.01,2013-10-09 22:24:00,
2013-10-09 18:25:00,65.8,26.6,30.17,ENE,57,4.2,4.2,23,0.00,,,0.00,85.47,VWS V14.01,2013-10-09 22:25:00,
2013-10-09 18:28:00,65.5,27.3,30.17,NE,55,4.0,4.2,24,0.00,,,0.00,80.71,VWS V14.01,2013-10-09 22:28:00,
2013-10-09 18:29:00,65.6,27.0,30.19,ENE,68,4.9,6.3,23,0.00,,,0.00,77.66,VWS V14.01,2013-10-09 22:29:00,
2013-10-09 18:31:00,65.4,26.6,30.16,ESE,103,5.1,5.7,23,0.00,,,0.00,73.08,VWS V14.01,2013-10-09 22:31:00,
2013-10-09 18:34:00,65.0,26.1,30.18,NNE,31,5.1,5.1,23,0.00,,,0.00,68.19,VWS V14.01,2013-10-09 22:34:00,
2013-10-09 18:36:00,64.7,26.1,30.17,ENE,74,5.6,5.6,23,0.00,,,0.00,60.87,VWS V14.01,2013-10-09 22:36:00,
2013-10-09 18:37:00,64.5,25.7,30.17,NE,49,3.9,5.6,23,0.00,,,0.00,60.87,VWS V14.01,2013-10-09 22:37:00,
2013-10-09 18:38:00,64.3,26.3,30.17,NE,34,5.2,5.2,24,0.00,,,0.00,58.42,VWS V14.01,2013-10-09 22:38:00,
2013-10-09 18:39:00,64.4,26.0,30.17,East,89,5.4,5.4,23,0.00,,,0.00,56.29,VWS V14.01,2013-10-09 22:39:00,
2013-10-09 18:40:00,64.3,25.8,30.16,ENE,72,6.3,6.3,23,0.00,,,0.00,53.24,VWS V14.01,2013-10-09 22:40:00,
2013-10-09 18:41:00,63.6,25.8,30.16,ENE,68,4.0,6.3,24,0.00,,,0.00,51.34,VWS V14.01,2013-10-09 22:41:00,
2013-10-09 18:43:00,63.5,26.0,30.16,NE,56,4.9,6.1,24,0.00,,,0.00,48.35,VWS V14.01,2013-10-09 22:43:00,
2013-10-09 18:45:00,63.2,26.5,30.17,NE,46,2.7,5.2,25,0.00,,,0.00,46.09,VWS V14.01,2013-10-09 22:45:00,
2013-10-09 18:46:00,63.4,26.2,30.17,NNE,32,5.6,5.6,24,0.00,,,0.00,40.84,VWS V14.01,2013-10-09 22:46:00,
2013-10-09 18:48:00,63.1,26.7,30.18,ENE,63,4.0,4.0,25,0.00,,,0.00,37.36,VWS V14.01,2013-10-09 22:48:00,
2013-10-09 18:50:00,62.8,26.3,30.18,NE,56,3.4,6.1,25,0.00,,,0.00,33.27,VWS V14.01,2013-10-09 22:50:00,
2013-10-09 18:51:00,62.7,26.6,30.17,East,86,4.5,4.5,25,0.00,,,0.00,31.26,VWS V14.01,2013-10-09 22:51:00,
2013-10-09 18:53:00,62.3,26.4,30.17,NE,51,3.7,4.2,25,0.00,,,0.00,27.29,VWS V14.01,2013-10-09 22:53:00,
2013-10-09 18:54:00,62.0,26.3,30.17,ENE,65,2.3,4.2,26,0.00,,,0.00,26.43,VWS V14.01,2013-10-09 22:54:00,
2013-10-09 18:56:00,62.3,26.6,30.18,East,88,5.2,5.2,26,0.00,,,0.00,21.25,VWS V14.01,2013-10-09 22:56:00,
2013-10-09 18:57:00,62.1,26.9,30.18,NE,39,4.4,5.2,26,0.00,,,0.00,19.66,VWS V14.01,2013-10-09 22:57:00,
2013-10-09 18:59:00,62.0,26.5,30.17,East,83,5.2,6.3,26,0.00,,,0.00,14.84,VWS V14.01,2013-10-09 22:59:00,
2013-10-09 19:01:00,62.3,27.0,30.17,NE,45,4.7,5.1,26,0.00,,,0.00,12.76,VWS V14.01,2013-10-09 23:01:00,
2013-10-09 19:02:00,62.3,27.0,30.17,NE,45,4.7,5.1,26,0.00,,,0.00,12.76,VWS V14.01,2013-10-09 23:02:00,
2013-10-09 19:04:00,62.3,27.0,30.17,NE,45,4.7,5.1,26,0.00,,,0.00,12.76,VWS V14.01,2013-10-09 23:04:00,
2013-10-09 19:07:00,62.3,27.0,30.17,NE,45,4.7,5.1,26,0.00,,,0.00,12.76,VWS V14.01,2013-10-09 23:07:00,
2013-10-09 19:08:00,62.3,27.0,30.17,NE,45,4.7,5.1,26,0.00,,,0.00,12.76,VWS V14.01,2013-10-09 23:08:00,
2013-10-09 19:09:00,61.1,27.3,30.17,NE,50,5.7,5.7,27,0.00,,,0.00,4.21,VWS V14.01,2013-10-09 23:09:00,
2013-10-09 19:10:00,60.8,27.3,30.18,ENE,63,3.4,5.7,28,0.00,,,0.00,3.24,VWS V14.01,2013-10-09 23:10:00,
2013-10-09 19:13:00,60.8,27.5,30.17,SSE,156,5.1,5.1,28,0.00,,,0.00,2.50,VWS V14.01,2013-10-09 23:13:00,
2013-10-09 19:14:00,60.8,27.5,30.17,SSE,156,5.1,5.1,28,0.00,,,0.00,2.50,VWS V14.01,2013-10-09 23:14:00,
2013-10-09 19:15:00,60.2,27.7,30.17,East,88,3.2,4.0,29,0.00,,,0.00,2.26,VWS V14.01,2013-10-09 23:15:00,
2013-10-09 19:16:00,59.4,27.5,30.16,NE,53,2.5,4.2,29,0.00,,,0.00,1.28,VWS V14.01,2013-10-09 23:16:00,
2013-10-09 19:17:00,60.1,27.6,30.18,NE,53,5.7,5.7,29,0.00,,,0.00,1.77,VWS V14.01,2013-10-09 23:17:00,
2013-10-09 19:18:00,60.3,28.0,30.18,East,79,2.7,5.7,29,0.00,,,0.00,0.79,VWS V14.01,2013-10-09 23:18:00,
2013-10-09 19:20:00,59.2,27.5,30.18,East,97,2.2,5.7,30,0.00,,,0.00,0.06,VWS V14.01,2013-10-09 23:20:00,
2013-10-09 19:22:00,59.7,27.9,30.18,ENE,73,3.9,3.9,30,0.00,,,0.00,0.00,VWS V14.01,2013-10-09 23:22:00,
2013-10-09 19:23:00,59.7,26.2,30.18,ESE,116,3.7,4.4,28,0.00,,,0.00,0.00,VWS V14.01,2013-10-09 23:23:00,
2013-10-09 19:24:00,58.6,27.8,30.18,ENE,71,1.1,2.3,31,0.00,,,0.00,0.00,VWS V14.01,2013-10-09 23:24:00,
2013-10-09 19:26:00,59.3,28.2,30.18,ENE,68,4.2,4.2,30,0.00,,,0.00,0.00,VWS V14.01,2013-10-09 23:26:00,
2013-10-09 19:27:00,58.4,28.1,30.18,East,91,2.2,4.2,31,0.00,,,0.00,0.73,VWS V14.01,2013-10-09 23:27:00,
2013-10-09 19:28:00,58.3,28.3,30.18,East,83,2.2,2.8,32,0.00,,,0.00,0.00,VWS V14.01,2013-10-09 23:28:00,
2013-10-09 19:29:00,58.9,28.7,30.18,ENE,75,3.7,3.7,31,0.00,,,0.00,0.12,VWS V14.01,2013-10-09 23:29:00,
2013-10-09 19:30:00,58.7,28.8,30.17,ENE,62,3.0,3.7,32,0.00,,,0.00,0.00,VWS V14.01,2013-10-09 23:30:00,
2013-10-09 19:32:00,58.5,28.6,30.19,NE,55,3.2,4.4,32,0.00,,,0.00,0.00,VWS V14.01,2013-10-09 23:32:00,
2013-10-09 19:33:00,58.3,28.7,30.18,ENE,73,3.7,4.4,32,0.00,,,0.00,0.73,VWS V14.01,2013-10-09 23:33:00,
2013-10-09 19:35:00,58.7,29.1,30.19,East,86,4.5,4.5,32,0.00,,,0.00,0.00,VWS V14.01,2013-10-09 23:35:00,
2013-10-09 19:36:00,58.5,29.0,30.19,East,88,4.7,4.7,32,0.00,,,0.00,0.00,VWS V14.01,2013-10-09 23:36:00,
2013-10-09 19:37:00,58.2,29.1,30.18,ENE,66,3.2,4.7,33,0.00,,,0.00,0.00,VWS V14.01,2013-10-09 23:37:00,
2013-10-09 19:38:00,58.5,29.5,30.19,ENE,58,3.9,4.0,33,0.00,,,0.00,0.00,VWS V14.01,2013-10-09 23:38:00,
2013-10-09 19:40:00,57.8,29.3,30.18,ENE,62,2.8,3.4,33,0.00,,,0.00,0.00,VWS V14.01,2013-10-09 23:40:00,
2013-10-09 19:41:00,57.8,29.3,30.18,ENE,62,2.8,3.4,33,0.00,,,0.00,0.00,VWS V14.01,2013-10-09 23:41:00,
2013-10-09 19:42:00,57.9,29.8,30.22,East,90,3.9,3.9,34,0.00,,,0.00,0.00,VWS V14.01,2013-10-09 23:42:00,
2013-10-09 19:44:00,58.1,29.9,30.19,East,79,3.7,5.1,34,0.00,,,0.00,0.00,VWS V14.01,2013-10-09 23:44:00,
2013-10-09 19:45:00,58.0,29.9,30.19,ENE,69,3.5,5.1,34,0.00,,,0.00,0.00,VWS V14.01,2013-10-09 23:45:00,
2013-10-09 19:46:00,57.8,30.1,30.19,East,82,3.7,3.7,35,0.00,,,0.00,0.00,VWS V14.01,2013-10-09 23:46:00,
2013-10-09 19:48:00,57.0,26.8,30.19,East,79,3.9,3.9,31,0.00,,,0.00,0.00,VWS V14.01,2013-10-09 23:48:00,
2013-10-09 19:49:00,56.9,30.0,30.20,ENE,72,3.2,3.2,36,0.00,,,0.00,0.00,VWS V14.01,2013-10-09 23:49:00,
2013-10-09 19:50:00,56.5,29.7,30.19,East,88,2.2,2.2,36,0.00,,,0.00,0.73,VWS V14.01,2013-10-09 23:50:00,
2013-10-09 19:51:00,56.7,30.3,30.19,NE,43,4.7,4.7,36,0.00,,,0.00,0.00,VWS V14.01,2013-10-09 23:51:00,
2013-10-09 19:54:00,56.5,30.4,30.19,ENE,74,2.2,4.5,37,0.00,,,0.00,0.12,VWS V14.01,2013-10-09 23:54:00,
2013-10-09 19:55:00,56.5,30.6,30.19,ENE,76,3.7,4.5,37,0.00,,,0.00,0.73,VWS V14.01,2013-10-09 23:55:00,
2013-10-09 20:00:00,56.2,31.0,30.20,East,80,1.6,6.3,38,0.00,,,0.00,0.00,VWS V14.01,2013-10-10 00:00:00,
2013-10-09 20:01:00,56.6,31.4,30.19,ENE,70,2.7,6.3,38,0.00,,,0.00,0.00,VWS V14.01,2013-10-10 00:01:00,
2013-10-09 20:04:00,56.4,32.0,30.19,East,82,2.5,6.3,39,0.00,,,0.00,0.00,VWS V14.01,2013-10-10 00:04:00,
2013-10-09 20:05:00,56.4,32.0,30.19,East,82,2.5,6.3,39,0.00,,,0.00,0.00,VWS V14.01,2013-10-10 00:05:00,
2013-10-09 20:07:00,55.2,31.9,30.19,East,89,2.2,6.3,41,0.00,,,0.00,0.00,VWS V14.01,2013-10-10 00:07:00,
2013-10-09 20:10:00,55.2,32.3,30.17,East,80,1.8,6.3,42,0.00,,,0.00,0.00,VWS V14.01,2013-10-10 00:10:00,
2013-10-09 20:11:00,55.8,33.0,30.19,East,82,2.2,6.3,42,0.00,,,0.00,0.00,VWS V14.01,2013-10-10 00:11:00,
2013-10-09 20:12:00,55.2,32.6,30.19,East,93,1.8,6.3,42,0.00,,,0.00,0.00,VWS V14.01,2013-10-10 00:12:00,
2013-10-09 20:15:00,54.5,31.2,30.19,ENE,76,2.0,6.3,41,0.00,,,0.00,0.12,VWS V14.01,2013-10-10 00:15:00,
2013-10-09 20:16:00,54.9,33.1,30.20,ENE,77,2.5,6.3,44,0.00,,,0.00,0.00,VWS V14.01,2013-10-10 00:16:00,
2013-10-09 20:17:00,55.0,33.3,30.19,East,92,2.2,6.3,44,0.00,,,0.00,0.00,VWS V14.01,2013-10-10 00:17:00,
2013-10-09 20:18:00,54.6,29.3,30.19,East,90,2.3,6.3,38,0.00,,,0.00,0.00,VWS V14.01,2013-10-10 00:18:00,
2013-10-09 20:19:00,54.2,32.9,30.19,East,90,3.0,6.3,44,0.00,,,0.00,0.00,VWS V14.01,2013-10-10 00:19:00,
2013-10-09 20:21:00,54.0,33.1,30.19,East,87,0.0,6.3,45,0.00,,,0.00,0.00,VWS V14.01,2013-10-10 00:21:00,
2013-10-09 20:22:00,53.9,33.5,30.19,ENE,76,2.3,6.3,46,0.00,,,0.00,0.00,VWS V14.01,2013-10-10 00:22:00,
2013-10-09 20:23:00,54.2,33.9,30.19,East,80,1.6,6.3,46,0.00,,,0.00,0.00,VWS V14.01,2013-10-10 00:23:00,
2013-10-09 20:25:00,54.7,34.6,30.18,ENE,74,2.0,6.3,47,0.00,,,0.00,0.00,VWS V14.01,2013-10-10 00:25:00,
2013-10-09 20:26:00,55.3,35.2,30.18,East,80,1.6,6.3,47,0.00,,,0.00,0.00,VWS V14.01,2013-10-10 00:26:00,
2013-10-09 20:27:00,53.8,34.1,30.19,NE,44,2.2,6.3,47,0.00,,,0.00,0.00,VWS V14.01,2013-10-10 00:27:00,
2013-10-09 20:28:00,53.8,34.1,30.19,NE,44,2.2,6.3,47,0.00,,,0.00,0.00,VWS V14.01,2013-10-10 00:28:00,
2013-10-09 20:31:00,55.2,35.6,30.19,NE,50,3.0,6.3,47,0.00,,,0.00,0.00,VWS V14.01,2013-10-10 00:31:00,
2013-10-09 20:33:00,54.4,34.8,30.19,ENE,71,3.4,6.3,47,0.00,,,0.00,0.00,VWS V14.01,2013-10-10 00:33:00,
2013-10-09 20:34:00,54.3,34.9,30.20,NE,53,1.8,6.3,48,0.00,,,0.00,0.00,VWS V14.01,2013-10-10 00:34:00,
2013-10-09 20:35:00,55.0,35.6,30.19,ENE,72,0.0,6.3,48,0.00,,,0.00,0.00,VWS V14.01,2013-10-10 00:35:00,
2013-10-09 20:37:00,54.4,35.3,30.19,East,84,1.0,6.3,48,0.00,,,0.00,0.00,VWS V14.01,2013-10-10 00:37:00,
2013-10-09 20:38:00,55.2,36.1,30.20,East,79,4.2,6.3,48,0.00,,,0.00,0.00,VWS V14.01,2013-10-10 00:38:00,
2013-10-09 20:39:00,54.8,35.8,30.20,NE,40,2.3,6.3,49,0.00,,,0.00,0.00,VWS V14.01,2013-10-10 00:39:00,
2013-10-09 20:40:00,54.7,35.9,30.19,East,80,1.1,6.3,49,0.00,,,0.00,0.00,VWS V14.01,2013-10-10 00:40:00,
2013-10-09 20:41:00,54.7,35.9,30.19,East,80,1.1,6.3,49,0.00,,,0.00,0.00,VWS V14.01,2013-10-10 00:41:00,
2013-10-09 20:43:00,54.7,35.9,30.19,East,80,1.1,6.3,49,0.00,,,0.00,0.00,VWS V14.01,2013-10-10 00:43:00,
2013-10-09 20:44:00,54.1,35.7,30.20,ENE,58,1.5,6.3,50,0.00,,,0.00,0.00,VWS V14.01,2013-10-10 00:44:00,
2013-10-09 20:45:00,53.7,35.5,30.19,NE,53,0.0,6.3,50,0.00,,,0.00,0.00,VWS V14.01,2013-10-10 00:45:00,
2013-10-09 20:47:00,54.7,36.7,30.19,ENE,74,3.0,6.3,51,0.00,,,0.00,0.12,VWS V14.01,2013-10-10 00:47:00,
2013-10-09 20:49:00,54.9,37.2,30.20,NE,51,2.8,6.3,51,0.00,,,0.00,0.00,VWS V14.01,2013-10-10 00:49:00,
2013-10-09 20:50:00,55.2,37.4,30.20,NE,51,3.4,6.3,51,0.00,,,0.00,0.12,VWS V14.01,2013-10-10 00:50:00,
2013-10-09 20:52:00,54.5,34.7,30.20,NE,54,3.0,6.3,47,0.00,,,0.00,0.00,VWS V14.01,2013-10-10 00:52:00,
2013-10-09 20:53:00,54.6,37.2,30.20,ENE,76,2.8,6.3,52,0.00,,,0.00,0.73,VWS V14.01,2013-10-10 00:53:00,
2013-10-09 20:54:00,53.9,36.5,30.20,ENE,69,2.5,6.3,51,0.00,,,0.00,0.00,VWS V14.01,2013-10-10 00:54:00,
2013-10-09 20:55:00,53.8,36.6,30.20,NE,54,1.1,6.3,52,0.00,,,0.00,0.00,VWS V14.01,2013-10-10 00:55:00,
2013-10-09 20:56:00,53.8,36.6,30.20,NE,54,1.1,6.3,52,0.00,,,0.00,0.00,VWS V14.01,2013-10-10 00:56:00,
2013-10-09 20:57:00,54.4,37.2,30.20,NE,50,1.5,6.3,52,0.00,,,0.00,0.00,VWS V14.01,2013-10-10 00:57:00,
2013-10-09 21:00:00,54.3,37.3,30.19,ENE,65,2.7,6.3,53,0.00,,,0.00,0.00,VWS V14.01,2013-10-10 01:00:00,
2013-10-09 21:02:00,54.4,37.7,30.20,ENE,58,3.0,3.0,53,0.00,,,0.00,0.43,VWS V14.01,2013-10-10 01:02:00,
2013-10-09 21:03:00,54.2,37.6,30.20,NE,47,4.2,4.2,53,0.00,,,0.00,0.00,VWS V14.01,2013-10-10 01:03:00,
2013-10-09 21:04:00,53.9,37.0,30.21,NE,52,1.5,1.5,53,0.00,,,0.00,0.00,VWS V14.01,2013-10-10 01:04:00,
2013-10-09 21:07:00,54.2,36.0,30.20,ENE,74,3.4,3.4,50,0.00,,,0.00,0.00,VWS V14.01,2013-10-10 01:07:00,
2013-10-09 21:08:00,53.9,37.2,30.20,ENE,63,2.5,2.5,53,0.00,,,0.00,0.00,VWS V14.01,2013-10-10 01:08:00,
2013-10-09 21:09:00,53.8,37.3,30.20,NE,35,3.7,3.7,54,0.00,,,0.00,0.43,VWS V14.01,2013-10-10 01:09:00,
2013-10-09 21:10:00,53.5,37.2,30.20,NE,47,3.2,3.2,54,0.00,,,0.00,0.00,VWS V14.01,2013-10-10 01:10:00,
2013-10-09 21:12:00,53.5,37.3,30.21,NE,47,1.5,3.0,54,0.00,,,0.00,0.12,VWS V14.01,2013-10-10 01:12:00,
2013-10-09 21:14:00,53.7,37.5,30.20,ENE,60,1.8,3.0,54,0.00,,,0.00,0.00,VWS V14.01,2013-10-10 01:14:00,
2013-10-09 21:15:00,53.5,37.4,30.20,NE,48,0.0,2.5,54,0.00,,,0.00,0.00,VWS V14.01,2013-10-10 01:15:00,
2013-10-09 21:16:00,54.9,39.0,30.19,ENE,58,2.8,3.0,55,0.00,,,0.00,0.00,VWS V14.01,2013-10-10 01:16:00,
2013-10-09 21:17:00,53.5,37.5,30.19,NE,41,2.2,2.5,54,0.00,,,0.00,0.00,VWS V14.01,2013-10-10 01:17:00,
2013-10-09 21:19:00,52.8,37.5,30.20,NE,44,0.0,2.3,56,0.00,,,0.00,0.00,VWS V14.01,2013-10-10 01:19:00,
2013-10-09 21:20:00,54.1,38.7,30.20,East,86,2.0,2.3,56,0.00,,,0.00,0.12,VWS V14.01,2013-10-10 01:20:00,
2013-10-09 21:22:00,53.3,38.2,30.20,NE,54,2.2,2.3,56,0.00,,,0.00,0.00,VWS V14.01,2013-10-10 01:22:00,
2013-10-09 21:24:00,52.8,38.0,30.20,ENE,61,2.5,3.4,57,0.00,,,0.00,0.00,VWS V14.01,2013-10-10 01:24:00,
2013-10-09 21:25:00,52.8,38.1,30.20,ENE,69,2.3,2.5,57,0.00,,,0.00,0.00,VWS V14.01,2013-10-10 01:25:00,
2013-10-09 21:26:00,53.2,38.8,30.20,NE,54,2.5,2.5,58,0.00,,,0.00,0.00,VWS V14.01,2013-10-10 01:26:00,
2013-10-09 21:27:00,52.7,38.5,30.19,ENE,73,3.4,3.4,58,0.00,,,0.00,0.00,VWS V14.01,2013-10-10 01:27:00,
2013-10-09 21:28:00,52.7,38.5,30.19,ENE,73,3.4,3.4,58,0.00,,,0.00,0.00,VWS V14.01,2013-10-10 01:28:00,
2013-10-09 21:29:00,53.0,37.3,30.19,NE,51,2.3,2.3,55,0.00,,,0.00,0.00,VWS V14.01,2013-10-10 01:29:00,
2013-10-09 21:31:00,52.5,38.4,30.20,ENE,58,2.2,2.2,58,0.00,,,0.00,0.00,VWS V14.01,2013-10-10 01:31:00,
2013-10-09 21:33:00,53.5,39.7,30.20,ENE,67,2.3,2.3,59,0.00,,,0.00,0.43,VWS V14.01,2013-10-10 01:33:00,
2013-10-09 21:36:00,52.1,38.7,30.20,ENE,78,0.0,0.0,60,0.00,,,0.00,0.00,VWS V14.01,2013-10-10 01:36:00,
2013-10-09 21:37:00,51.5,38.5,30.19,East,95,1.8,2.7,61,0.00,,,0.00,0.00,VWS V14.01,2013-10-10 01:37:00,
2013-10-09 21:38:00,51.3,38.2,30.19,East,95,1.1,1.1,61,0.00,,,0.00,0.43,VWS V14.01,2013-10-10 01:38:00,
2013-10-09 21:40:00,51.5,38.7,30.20,East,93,0.0,0.0,61,0.00,,,0.00,0.00,VWS V14.01,2013-10-10 01:40:00,
2013-10-09 21:42:00,49.5,37.9,30.19,East,93,0.0,1.8,64,0.00,,,0.00,0.00,VWS V14.01,2013-10-10 01:42:00,
2013-10-09 21:46:00,51.0,40.1,30.19,ENE,74,2.0,2.0,66,0.00,,,0.00,0.00,VWS V14.01,2013-10-10 01:46:00,
2013-10-09 21:47:00,50.9,40.1,30.20,ENE,65,0.0,3.2,66,0.00,,,0.00,0.00,VWS V14.01,2013-10-10 01:47:00,
2013-10-09 21:48:00,52.5,41.4,30.23,ENE,62,1.6,2.0,66,0.00,,,0.00,0.00,VWS V14.01,2013-10-10 01:48:00,
2013-10-09 21:49:00,51.8,40.7,30.21,East,83,2.5,2.5,66,0.00,,,0.00,0.12,VWS V14.01,2013-10-10 01:49:00,
2013-10-09 21:51:00,50.9,39.8,30.20,East,83,2.0,2.0,66,0.00,,,0.00,0.00,VWS V14.01,2013-10-10 01:51:00,
2013-10-09 21:52:00,50.4,39.8,30.19,ENE,73,2.2,2.2,67,0.00,,,0.00,0.00,VWS V14.01,2013-10-10 01:52:00,
2013-10-09 21:53:00,50.8,40.2,30.19,ENE,74,2.2,2.2,67,0.00,,,0.00,0.00,VWS V14.01,2013-10-10 01:53:00,
2013-10-09 21:54:00,50.1,39.7,30.18,ENE,75,1.8,2.7,67,0.00,,,0.00,0.00,VWS V14.01,2013-10-10 01:54:00,
2013-10-09 21:55:00,51.2,41.2,30.19,ENE,76,2.0,2.0,68,0.00,,,0.00,0.73,VWS V14.01,2013-10-10 01:55:00,
2013-10-09 21:57:00,50.5,40.5,30.23,ENE,76,2.3,2.3,68,0.00,,,0.00,0.00,VWS V14.01,2013-10-10 01:57:00,
2013-10-09 21:59:00,50.9,41.4,30.20,ENE,62,0.0,0.0,70,0.00,,,0.00,0.00,VWS V14.01,2013-10-10 01:59:00,
2013-10-09 22:01:00,51.8,42.5,30.20,NE,48,0.0,1.5,70,0.00,,,0.00,0.00,VWS V14.01,2013-10-10 02:01:00,
2013-10-09 22:02:00,50.9,41.4,30.20,NE,48,0.0,0.0,70,0.00,,,0.00,0.00,VWS V14.01,2013-10-10 02:02:00,
2013-10-09 22:03:00,51.2,41.7,30.20,ENE,59,0.0,0.0,70,0.00,,,0.00,0.00,VWS V14.01,2013-10-10 02:03:00,
2013-10-09 22:05:00,50.9,41.3,30.20,East,85,2.0,2.0,70,0.00,,,0.00,0.00,VWS V14.01,2013-10-10 02:05:00,
2013-10-09 22:06:00,51.0,41.5,30.20,East,85,1.3,2.0,70,0.00,,,0.00,0.00,VWS V14.01,2013-10-10 02:06:00,
2013-10-09 22:07:00,52.0,42.4,30.19,ENE,71,0.0,0.0,70,0.00,,,0.00,0.00,VWS V14.01,2013-10-10 02:07:00,
2013-10-09 22:08:00,50.5,41.2,30.19,ENE,71,0.0,0.0,70,0.00,,,0.00,0.00,VWS V14.01,2013-10-10 02:08:00,
2013-10-09 22:10:00,51.0,41.8,30.20,ENE,71,1.0,1.0,71,0.00,,,0.00,0.12,VWS V14.01,2013-10-10 02:10:00,
2013-10-09 22:11:00,51.0,42.2,30.21,ENE,58,1.6,1.6,72,0.00,,,0.00,0.00,VWS V14.01,2013-10-10 02:11:00,
2013-10-09 22:12:00,51.2,42.4,30.20,NE,55,1.5,1.6,72,0.00,,,0.00,0.00,VWS V14.01,2013-10-10 02:12:00,
2013-10-09 22:13:00,51.2,42.6,30.20,NE,50,1.8,1.8,72,0.00,,,0.00,0.00,VWS V14.01,2013-10-10 02:13:00,
2013-10-09 22:14:00,51.2,42.7,30.19,NE,46,2.5,2.5,73,0.00,,,0.00,0.43,VWS V14.01,2013-10-10 02:14:00,
2013-10-09 22:15:00,51.7,42.9,30.19,NE,51,2.5,2.5,72,0.00,,,0.00,0.00,VWS V14.01,2013-10-10 02:15:00,
2013-10-09 22:17:00,51.9,43.0,30.20,NNE,32,2.5,2.5,71,0.00,,,0.00,0.00,VWS V14.01,2013-10-10 02:17:00,
2013-10-09 22:18:00,52.1,42.9,30.20,NE,40,2.5,2.5,71,0.00,,,0.00,0.43,VWS V14.01,2013-10-10 02:18:00,
2013-10-09 22:19:00,52.4,43.0,30.19,NE,52,2.8,2.8,70,0.00,,,0.00,0.00,VWS V14.01,2013-10-10 02:19:00,
2013-10-09 22:20:00,51.7,42.2,30.20,NE,36,1.8,2.8,70,0.00,,,0.00,0.12,VWS V14.01,2013-10-10 02:20:00,
2013-10-09 22:21:00,51.8,42.2,30.20,NE,37,2.3,2.3,70,0.00,,,0.00,0.00,VWS V14.01,2013-10-10 02:21:00,
2013-10-09 22:22:00,51.6,42.0,30.20,NE,43,2.0,2.5,70,0.00,,,0.00,0.00,VWS V14.01,2013-10-10 02:22:00,
2013-10-09 22:23:00,51.0,41.3,30.20,NE,48,2.3,2.3,69,0.00,,,0.00,0.00,VWS V14.01,2013-10-10 02:23:00,
2013-10-09 22:25:00,52.0,42.5,30.19,NE,48,2.5,2.5,70,0.00,,,0.00,0.00,VWS V14.01,2013-10-10 02:25:00,
2013-10-09 22:26:00,51.7,42.2,30.20,NE,48,1.8,1.8,70,0.00,,,0.00,0.12,VWS V14.01,2013-10-10 02:26:00,
2013-10-09 22:28:00,51.6,42.2,30.19,NE,44,2.2,2.2,70,0.00,,,0.00,0.00,VWS V14.01,2013-10-10 02:28:00,
2013-10-09 22:29:00,51.5,42.1,30.20,NE,39,2.3,2.3,70,0.00,,,0.00,0.00,VWS V14.01,2013-10-10 02:29:00,
2013-10-09 22:31:00,51.8,42.8,30.20,NE,48,2.7,2.7,71,0.00,,,0.00,0.00,VWS V14.01,2013-10-10 02:31:00,
2013-10-09 22:32:00,51.6,42.4,30.19,NE,41,2.7,2.7,71,0.00,,,0.00,0.00,VWS V14.01,2013-10-10 02:32:00,
2013-10-09 22:34:00,51.1,41.6,30.20,NE,45,1.1,2.0,70,0.00,,,0.00,0.00,VWS V14.01,2013-10-10 02:34:00,
2013-10-09 22:36:00,51.7,42.3,30.20,ENE,58,2.3,2.7,70,0.00,,,0.00,0.73,VWS V14.01,2013-10-10 02:36:00,
2013-10-09 22:39:00,51.3,42.2,30.19,NE,48,1.0,1.0,71,0.00,,,0.00,0.00,VWS V14.01,2013-10-10 02:39:00,
2013-10-09 22:40:00,51.3,42.2,30.19,NE,49,2.3,2.3,71,0.00,,,0.00,0.43,VWS V14.01,2013-10-10 02:40:00,
2013-10-09 22:43:00,51.3,42.4,30.20,NE,48,3.0,3.4,71,0.00,,,0.00,0.00,VWS V14.01,2013-10-10 02:43:00,
2013-10-09 22:44:00,51.7,43.0,30.19,NE,36,2.7,3.4,72,0.00,,,0.00,0.00,VWS V14.01,2013-10-10 02:44:00,
2013-10-09 22:45:00,51.5,42.6,30.20,NE,40,2.2,3.4,71,0.00,,,0.00,0.43,VWS V14.01,2013-10-10 02:45:00,
2013-10-09 22:46:00,52.3,43.4,30.20,NE,48,2.8,2.8,72,0.00,,,0.00,0.00,VWS V14.01,2013-10-10 02:46:00,
2013-10-09 22:47:00,51.5,42.5,30.20,NNE,32,2.0,2.8,71,0.00,,,0.00,0.43,VWS V14.01,2013-10-10 02:47:00,
2013-10-09 22:48:00,51.8,42.8,30.21,NE,48,2.8,3.0,71,0.00,,,0.00,0.00,VWS V14.01,2013-10-10 02:48:00,
2013-10-09 22:49:00,51.7,42.6,30.20,NE,42,2.3,2.8,71,0.00,,,0.00,0.73,VWS V14.01,2013-10-10 02:49:00,
2013-10-09 22:51:00,51.4,42.7,30.19,NE,44,2.7,2.7,72,0.00,,,0.00,0.12,VWS V14.01,2013-10-10 02:51:00,
2013-10-09 22:52:00,51.3,42.6,30.19,NE,41,2.5,2.7,72,0.00,,,0.00,0.73,VWS V14.01,2013-10-10 02:52:00,
2013-10-09 22:54:00,50.7,41.6,30.20,NE,42,1.1,1.1,71,0.00,,,0.00,0.43,VWS V14.01,2013-10-10 02:54:00,
2013-10-09 22:55:00,50.2,41.3,30.20,NE,37,0.0,1.1,71,0.00,,,0.00,0.00,VWS V14.01,2013-10-10 02:55:00,
2013-10-09 22:57:00,50.6,42.0,30.20,NE,40,1.8,2.3,72,0.00,,,0.00,0.00,VWS V14.01,2013-10-10 02:57:00,
2013-10-09 22:58:00,49.2,40.2,30.20,NE,39,0.0,0.0,71,0.00,,,0.00,0.00,VWS V14.01,2013-10-10 02:58:00,
2013-10-09 22:59:00,52.1,44.2,30.20,NE,50,4.2,4.2,74,0.00,,,0.00,0.00,VWS V14.01,2013-10-10 02:59:00,
2013-10-09 23:01:00,49.5,41.1,30.20,NNE,29,0.0,2.2,73,0.00,,,0.00,0.00,VWS V14.01,2013-10-10 03:01:00,
2013-10-09 23:02:00,50.3,42.7,30.20,NE,38,2.2,2.8,75,0.00,,,0.00,0.00,VWS V14.01,2013-10-10 03:02:00,
2013-10-09 23:04:00,50.9,43.4,30.20,NE,39,1.5,2.0,75,0.00,,,0.00,0.00,VWS V14.01,2013-10-10 03:04:00,
2013-10-09 23:05:00,50.6,43.1,30.20,NE,41,2.5,2.5,75,0.00,,,0.00,0.00,VWS V14.01,2013-10-10 03:05:00,
2013-10-09 23:08:00,50.7,43.0,30.19,NE,41,2.3,2.3,75,0.00,,,0.00,0.00,VWS V14.01,2013-10-10 03:08:00,
2013-10-09 23:10:00,50.9,43.1,30.19,NNE,25,3.0,3.0,74,0.00,,,0.00,0.73,VWS V14.01,2013-10-10 03:10:00,
2013-10-09 23:13:00,50.4,42.5,30.20,NE,34,2.7,2.7,74,0.00,,,0.00,0.00,VWS V14.01,2013-10-10 03:13:00,
2013-10-09 23:14:00,48.9,40.9,30.19,NNE,31,0.0,2.7,74,0.00,,,0.00,0.00,VWS V14.01,2013-10-10 03:14:00,
2013-10-09 23:15:00,48.9,40.9,30.19,NNE,31,0.0,2.7,74,0.00,,,0.00,0.00,VWS V14.01,2013-10-10 03:15:00,
2013-10-09 23:16:00,49.8,40.7,30.19,NE,34,2.2,2.2,71,0.00,,,0.00,0.06,VWS V14.01,2013-10-10 03:16:00,
2013-10-09 23:17:00,49.2,41.8,30.20,NNE,29,1.6,2.2,75,0.00,,,0.00,0.00,VWS V14.01,2013-10-10 03:17:00,
2013-10-09 23:19:00,48.2,41.1,30.20,NNE,33,0.0,0.0,76,0.00,,,0.00,0.00,VWS V14.01,2013-10-10 03:19:00,
2013-10-09 23:20:00,48.2,41.1,30.20,NNE,33,0.0,0.0,76,0.00,,,0.00,0.00,VWS V14.01,2013-10-10 03:20:00,
2013-10-09 23:21:00,48.1,41.7,30.20,NNE,33,0.0,0.0,78,0.00,,,0.00,0.00,VWS V14.01,2013-10-10 03:21:00,
2013-10-09 23:22:00,48.1,41.7,30.20,NNE,33,0.0,0.0,78,0.00,,,0.00,0.00,VWS V14.01,2013-10-10 03:22:00,
2013-10-09 23:25:00,49.3,43.7,30.20,ENE,64,0.0,1.8,81,0.00,,,0.00,0.00,VWS V14.01,2013-10-10 03:25:00,
2013-10-09 23:26:00,51.3,46.2,30.19,NE,49,2.2,2.2,83,0.00,,,0.00,0.00,VWS V14.01,2013-10-10 03:26:00,
2013-10-09 23:27:00,50.1,44.6,30.19,NE,49,0.0,0.0,81,0.00,,,0.00,0.00,VWS V14.01,2013-10-10 03:27:00,
2013-10-09 23:28:00,51.2,45.4,30.19,NE,47,2.0,2.3,81,0.00,,,0.00,0.00,VWS V14.01,2013-10-10 03:28:00,
2013-10-09 23:30:00,51.0,44.5,30.20,NE,43,2.0,2.0,79,0.00,,,0.00,0.00,VWS V14.01,2013-10-10 03:30:00,
2013-10-09 23:31:00,50.5,43.9,30.21,NE,43,1.1,1.1,78,0.00,,,0.00,0.00,VWS V14.01,2013-10-10 03:31:00,
2013-10-09 23:33:00,50.9,44.2,30.20,NE,48,0.0,2.3,78,0.00,,,0.00,0.00,VWS V14.01,2013-10-10 03:33:00,
2013-10-09 23:34:00,49.8,43.0,30.20,NE,47,0.0,0.0,77,0.00,,,0.00,0.06,VWS V14.01,2013-10-10 03:34:00,
2013-10-09 23:35:00,50.4,43.3,30.19,NE,47,1.1,1.1,77,0.00,,,0.00,0.00,VWS V14.01,2013-10-10 03:35:00,
2013-10-09 23:36:00,50.8,44.3,30.20,NE,53,2.0,2.2,78,0.00,,,0.00,0.00,VWS V14.01,2013-10-10 03:36:00,
2013-10-09 23:38:00,49.9,43.2,30.20,NE,39,2.0,2.2,78,0.00,,,0.00,0.00,VWS V14.01,2013-10-10 03:38:00,
2013-10-09 23:39:00,49.3,42.5,30.20,NE,38,0.0,1.5,77,0.00,,,0.00,0.00,VWS V14.01,2013-10-10 03:39:00,
2013-10-09 23:40:00,50.1,43.5,30.20,NNE,24,3.0,3.0,78,0.00,,,0.00,0.00,VWS V14.01,2013-10-10 03:40:00,
2013-10-09 23:42:00,49.7,43.1,30.20,NNE,19,2.2,2.8,78,0.00,,,0.00,0.00,VWS V14.01,2013-10-10 03:42:00,
2013-10-09 23:44:00,48.8,42.5,30.20,North,10,1.8,1.8,78,0.00,,,0.00,0.06,VWS V14.01,2013-10-10 03:44:00,
2013-10-09 23:45:00,48.8,42.6,30.19,NNE,25,2.3,2.3,79,0.00,,,0.00,0.00,VWS V14.01,2013-10-10 03:45:00,
2013-10-09 23:46:00,48.7,42.7,30.20,NNE,30,1.0,1.8,80,0.00,,,0.00,0.00,VWS V14.01,2013-10-10 03:46:00,
2013-10-09 23:48:00,49.6,44.2,30.20,NNE,32,2.7,2.7,82,0.00,,,0.00,0.00,VWS V14.01,2013-10-10 03:48:00,
2013-10-09 23:50:00,49.0,43.2,30.20,NNE,29,1.5,2.5,80,0.00,,,0.00,0.43,VWS V14.01,2013-10-10 03:50:00,
2013-10-09 23:52:00,49.5,43.3,30.20,NE,39,0.0,2.7,79,0.00,,,0.00,0.00,VWS V14.01,2013-10-10 03:52:00,
2013-10-09 23:53:00,49.1,43.0,30.19,NNE,33,2.0,2.0,79,0.00,,,0.00,0.73,VWS V14.01,2013-10-10 03:53:00,
2013-10-09 23:55:00,50.5,44.5,30.20,NE,35,1.8,1.8,80,0.00,,,0.00,0.00,VWS V14.01,2013-10-10 03:55:00,
2013-10-09 23:58:00,47.9,41.5,30.20,North,3,0.0,2.3,78,0.00,,,0.00,0.12,VWS V14.01,2013-10-10 03:58:00,
2013-10-09 23:59:00,49.2,43.6,30.20,NNE,30,0.0,1.1,81,0.00,,,0.00,0.00,VWS V14.01,2013-10-10 03:59:00,